     2              OBSERVATION DATA    GPS                 RINEX VERSION / TYPE
ASRINEXO V2.7.2 UX SOPAC 02-MAR- 0 15:35                    PGM / RUN BY / DATE
                                                            COMMENT
Original Marker Name: 0404                                  COMMENT
Campaign Name: HPGN 1991                                    COMMENT
4-Character Station Name: 0404                              COMMENT
6-Character Antenna Code: ASHL12                            COMMENT
Vertical Measurement Point: BAS                             COMMENT
Vertical Offset to Rinex Ref. Point: 0.0000                 COMMENT
Radial Measurement Point: RRP                               COMMENT
Radial Offset to Rinex Ref. Point: 0.0000                   COMMENT
Antenna Height from Field Measurement: 2.2150 m             COMMENT
Additional Antenna Identification Info.:                    COMMENT
Original Ashtech L1/L2                                      COMMENT
Original XYZ: -2720131.6600 -4279150.3600 3856187.9200      COMMENT
New XYZ position is based on association with SCEC monument COMMENT
E1F6S9O8+0011. Position of that monument is believed to be  COMMENT
valid to within 1 m horizontally; vertical accuracy         COMMENT
should be no worse than 3-times this value.                 COMMENT
                                                            COMMENT
Revised Rinex header created by UCSD GPS archive for        COMMENT
GSAC on 17-Mar-2000 (2000:077) 22:18:46 GMT                 COMMENT
For assistance contact dagnew@ucsd.edu or hjohnson@ucsd.edu COMMENT
                                                            COMMENT
MOON 2                                                      MARKER NAME
SCV CALIF DEPT TRANSPORTATION                               OBSERVER / AGENCY
621 ASHTECH L-XII 6A                                        REC # / TYPE / VERS
183 ASHTECH GEODETIC L                                      ANT # / TYPE
 -2720128.0876 -4279139.4152  3856181.8346                  APPROX POSITION XYZ
        2.2150        0.0000        0.0000                  ANTENNA: DELTA H/E/N
     1     2     0                                          WAVELENGTH FACT L1/2
     3    C1    L1    L2                                    # / TYPES OF OBSERV
     0                                                      INTERVAL
  1991     7    30     4    18   15.000000                  TIME OF FIRST OBS
  1991     7    30     6    25   15.000000                  TIME OF LAST OBS
                                                            END OF HEADER
 91  7 30  4 18 15.0000000  0  4 21 11 23 17
  20834635.678           0.477 4         0.296 3
  22495223.579           0.749 3         0.040 2
  21369947.195           0.392 4         0.023 3
  23193126.331           0.086 2         0.484 1
 91  7 30  4 18 30.0000000  0  4 21 11 23 17
  20832850.119       -9382.810 4     -7311.340 3
  22488240.516      -36691.405 3    -28591.239 2
  21375785.654       30681.416 4     23907.319 3
  23202084.435       47070.910 2     36679.026 1
 91  7 30  4 18 45.0000000  0  4 21 11 23 17
  20831074.150      -18702.081 4    -14573.101 3
  22481275.437      -73289.580 3    -57109.254 2
  21381631.006       61399.840 4     47843.755 3
  23211050.025       94187.296 2     73393.054 2
 91  7 30  4 19  0.0000000  0  4 21 11 23 17
  20829313.170      -27959.072 4    -21786.328 3
  22474328.950     -109794.982 3    -85554.995 2
  21387482.657       92153.891 4     71807.946 3
  23220027.010      141347.646 2    110141.358 1
 91  7 30  4 19 15.0000000  0  4 21 11 23 17
  20827561.177      -37155.465 4    -28952.341 3
  22467395.647     -146208.943 3   -113929.477 2
  21393342.693      122941.834 4     95798.559 3
  23229005.191      188549.948 2    146922.345 1
 91  7 30  4 19 30.0000000  0  4 21 11 23 17
  20825827.480      -46275.485 4    -36058.821 3
  22460490.822     -182515.175 3   -142220.012 2
  21399209.937      153779.294 4    119827.749 3
  23237998.370      235810.089 2    183748.407 1
 91  7 30  4 19 45.0000000  0  4 21 11 23 17
  20824106.374      -55324.657 4    -43110.106 3
  22453601.599     -218718.863 3   -170430.628 2
  21405088.269      184660.575 4    143891.084 3
  23247009.828      283122.440 2    220615.147 1
 91  7 30  4 20  0.0000000  0  4 21 11 23 17
  20822398.451      -64301.814 4    -50105.289 3
  22446731.247     -254818.346 3   -198560.081 2
  21410974.088      215586.771 4    167989.416 3
  23256017.997      330488.075 2    257523.392 1
 91  7 30  4 20 15.0000000  0  4 21 11 23 17
  20820700.728      -73209.562 4    -57046.373 3
  22439883.991     -290815.791 3   -226610.008 2
  21416867.114      246555.177 4    192120.647 3
  23265045.946      377904.539 2    294471.259 1
 91  7 30  4 20 30.0000000  0  4 21 11 23 17
  20819022.488      -82042.883 4    -63929.462 3
  22433050.826     -326705.757 3   -254576.189 2
  21422768.228      277570.692 4    216288.585 3
  23274074.793      425376.669 2    331462.502 1
 91  7 30  4 20 45.0000000  0  4 21 11 23 17
  20817354.745      -90800.411 4    -70753.495 3
  22426241.638     -362486.447 3   -282457.214 2
  21428679.533      308634.723 4    240494.317 3
  23283128.228      472905.707 2    368498.081 1
 91  7 30  4 21  0.0000000  0  4 21 11 23 17
  20815704.085      -99481.881 4    -77518.260 3
  22419455.833     -398157.181 3   -310252.561 2
  21434601.631      339747.331 4    264737.912 3
  23292165.766      520491.895 2    405578.198 1
 91  7 30  4 21 15.0000000  0  4 21 11 23 17
  20814063.023     -108094.280 4    -84229.206 3
  22412686.823     -433724.416 3   -337967.256 2
  21440529.129      370901.367 4    289013.789 3
  23301248.281      568128.436 2    442697.546 1
 91  7 30  4 21 30.0000000  0  4 21 11 23 17
  20812442.046     -116633.053 4    -90882.779 3
  22405940.290     -469183.132 3   -365597.410 2
  21446465.318      402101.350 4    313325.466 3
  23310320.300      615819.621 2    479859.497 1
 91  7 30  4 21 45.0000000  0  4 21 11 23 17
  20810828.564     -125097.848 4    -97478.708 3
  22399214.749     -504532.725 3   -393142.518 2
  21452410.503      433347.598 4    337673.192 3
  23319399.518      663565.849 2    517064.319 1
 91  7 30  4 22  0.0000000  0  4 21 11 23 17
  20809233.370     -133478.492 4   -104009.070 3
  22392507.793     -539762.524 3   -420594.256 2
  21458367.981      464650.173 4    362064.817 3
  23328505.408      711377.052 2    554319.760 1
 91  7 30  4 22 15.0000000  0  4 21 11 23 17
  20807654.361     -141789.999 4   -110485.551 3
  22385824.220     -574887.057 3   -447963.991 2
  21464334.149      495994.206 4    386488.732 3
  23337610.408      759238.430 2    591614.324 1
 91  7 30  4 22 30.0000000  0  4 21 11 23 17
  20806086.145     -150027.607 4   -116904.453 3
  22379161.029     -609901.158 3   -475247.690 2
  21470305.116      527384.033 4    410948.340 3
  23346729.194      807154.571 2    628951.520 1
 91  7 30  4 22 45.0000000  0  4 21 11 23 17
  20804532.019     -158186.488 4   -123262.002 3
  22372518.228     -644799.567 3   -502441.230 2
  21476290.471      558824.405 4    435447.339 3
  23355856.373      855130.359 2    666335.234 1
 91  7 30  4 23  0.0000000  0  4 21 11 23 17
  20802993.783     -166268.139 4   -129559.374 3
  22365900.608     -679583.451 3   -529545.524 2
  21482281.829      590313.658 4    459984.420 3
  23364996.448      903164.057 2    703764.077 1
 91  7 30  4 23 15.0000000  0  4 21 11 23 17
  20801470.545     -174281.815 4   -135803.780 3
  22359300.378     -714261.331 3   -556567.227 2
  21488281.275      621842.781 4    484552.571 3
  23374146.714      951246.456 2    741230.837 1
 91  7 30  4 23 30.0000000  0  4 21 11 23 17
  20799956.293     -182231.788 4   -141998.548 3
  22352722.335     -748837.290 3   -583509.493 2
  21494288.216      653407.060 4    509148.114 3
  23383300.278      999373.204 2    778732.178 1
 91  7 30  4 23 45.0000000  0  4 21 11 23 17
  20798458.227     -190100.211 4   -148129.774 3
  22346166.768     -783293.049 3   -610358.111 2
  21500304.745      685024.252 4    533784.889 3
  23392482.321     1047562.138 2    816281.957 2
 91  7 30  4 24  0.0000000  0  4 21 11 23 17
  20796974.854     -197902.335 4   -154209.331 3
  22339630.100     -817643.586 3   -637124.743 2
  21506326.676      716679.076 4    558450.985 3
  23401658.073     1095797.765 2    853868.120 1
 91  7 30  4 24 15.0000000  0  4 21 11 23 17
  20795506.470     -205634.275 4   -160234.201 3
  22333112.007     -851884.512 3   -663805.947 2
  21512359.705      748375.349 4    583149.370 3
  23410844.609     1144084.054 2    891493.746 1
 91  7 30  4 24 30.0000000  0  4 21 11 23 17
  20794044.683     -213295.432 4   -166203.922 3
  22326616.102     -886014.713 3   -690400.892 2
  21518398.126      780113.512 4    607880.412 3
  23420037.445     1192421.630 2    929159.366 1
 91  7 30  4 24 45.0000000  0  4 21 11 23 17
  20792601.480     -220888.817 4   -172120.825 3
  22320145.980     -920036.708 3   -716911.498 2
  21524446.738      811890.599 4    632641.774 3
  23429248.272     1240807.417 2    966862.573 1
 91  7 30  4 25  0.0000000  0  4 21 11 23 17
  20791168.774     -228416.553 4   -177986.570 3
  22313691.756     -953952.266 3   -743339.196 2
  21530501.344      843704.291 4    657431.666 3
  23438461.490     1289239.221 2   1004601.608 1
 91  7 30  4 25 15.0000000  0  4 21 11 23 17
  20789750.455     -235873.802 4   -183797.401 3
  22307259.108     -987756.136 3   -769679.835 2
  21536561.351      875559.468 4    682253.869 3
  23447690.002     1337721.892 2   1042380.271 1
 91  7 30  4 25 30.0000000  0  4 21 11 23 17
  20788343.226     -243257.860 4   -189551.197 3
  22300845.944    -1021445.160 3   -795930.993 2
  21542633.346      907458.643 4    707110.374 3
  23456927.807     1386258.016 2   1080200.584 1
 91  7 30  4 25 45.0000000  0  4 21 11 23 17
  20786951.292     -250579.942 4   -195256.701 3
  22294457.070    -1055030.068 3   -822101.025 2
  21548709.241      939390.534 4    731992.369 3
  23466163.510     1434836.155 2   1118053.645 1
 91  7 30  4 26  0.0000000  0  4 21 11 23 17
  20785574.051     -257829.466 4   -200905.660 3
  22288086.475    -1088499.959 3   -848181.440 2
  21554792.326      971365.611 4    756908.014 3
  23475419.602     1483467.022 2   1155947.783 1
 91  7 30  4 26 15.0000000  0  4 21 11 23 17
  20784205.491     -265004.486 4   -206496.567 3
  22281740.773    -1121852.569 3   -874170.468 2
  21560887.408     1003385.586 4    781858.639 3
  23484681.689     1532152.370 2   1193884.395 1
 91  7 30  4 26 30.0000000  0  4 21 11 23 17
  20782852.532     -272111.544 4   -212034.523 3
  22275415.148    -1155093.940 3   -900072.795 2
  21566987.585     1035443.884 4    806839.142 3
  23493957.867     1580885.539 2   1231858.276 1
 91  7 30  4 26 45.0000000  0  4 21 11 23 17
  20781513.655     -279148.469 4   -217517.823 3
  22269111.711    -1188221.376 3   -925886.362 2
  21573093.757     1067542.683 4    831851.183 3
  23503242.142     1629668.799 2   1269871.163 1
 91  7 30  4 27  0.0000000  0  4 21 11 23 17
  20780188.573     -286114.277 4   -222945.701 3
  22262828.367    -1221233.530 3   -951610.104 2
  21579211.027     1099682.937 4    856895.533 3
  23512546.799     1678503.105 2   1307923.842 1
 91  7 30  4 27 15.0000000  0  4 21 11 23 17
  20778876.683     -293008.736 4   -228317.990 3
  22256570.196    -1254129.778 3   -977243.509 2
  21585334.587     1131864.702 4    881972.242 3
  23521832.278     1727388.578 2   1346016.400 1
 91  7 30  4 27 30.0000000  0  4 21 11 23 17
  20777578.282     -299831.409 4   -233634.339 3
  22250329.718    -1286909.323 3  -1002785.983 2
  21591467.135     1164088.230 4    907081.489 3
  23531152.823     1776325.422 2   1384149.006
 91  7 30  4 27 45.0000000  0  4 21 11 23 17
  20776294.871     -306586.889 4   -238898.339 3
  22244113.820    -1319576.246 3  -1028240.702 2
  21597605.685     1196348.874 4    932219.643 3
  23540469.774     1825309.024 2   1422317.974 1
 91  7 30  4 28  0.0000000  0  4 21 11 23 17
  20775019.557     -313280.741 4   -244114.302 3
  22237919.211    -1352135.751 3  -1053611.722 2
  21603750.832     1228641.018 4    957382.358 3
  23549803.511     1874334.067 2   1460519.261 1
 91  7 30  4 28 15.0000000  0  4 21 11 23 17
  20773758.927     -319902.641 4   -249274.208 3
  22231745.280    -1384576.982 3  -1078890.590 2
  21609904.075     1260974.879 4    982577.574 3
  23559146.838     1923410.437 2   1498760.586 1
 91  7 30  4 28 30.0000000  0  4 21 11 23 17
  20772510.887     -326456.921 4   -254381.428 3
  22225593.241    -1416903.932 3  -1104080.388 2
  21616064.813     1293345.947 4   1007801.784 3
  23568489.876     1972533.766 2   1537038.443 1
 91  7 30  4 28 45.0000000  0  4 21 11 23 17
  20771276.049     -332946.511 4   -259438.237 3
  22219462.482    -1449119.121 3  -1129183.118 2
  21622228.544     1325751.331 4   1033052.732 3
  23577848.498     2021701.227 2   1575350.756 1
 91  7 30  4 29  0.0000000  0  4 21 11 23 17
  20770057.090     -339369.595 4   -264443.216 3
  22213353.911    -1481220.249 3  -1154196.959 2
  21628403.967     1358192.924 4   1058331.896 3
  23587211.910     2070914.727 2   1613698.891 1
 91  7 30  4 29 15.0000000  0  4 21 11 23 17
  20768844.431     -345721.055 4   -269392.384 3
  22207268.724    -1513201.895 3  -1179117.700 2
  21634585.689     1390675.679 4   1083643.134 3
  23596587.022     2120179.129 2   1652086.701 1
 91  7 30  4 29 30.0000000  0  4 21 11 23 17
  20767647.660     -352005.062 4   -274288.997 3
  22201202.129    -1545067.846 3  -1203948.286 2
  21640771.905     1423195.074 4   1108982.915 3
  23605974.122     2169490.320 2   1690510.951 1
 91  7 30  4 29 45.0000000  0  4 21 11 23 17
  20766466.176     -358223.406 4   -279134.451 3
  22195164.904    -1576819.334 4  -1228689.682 2
  21646966.819     1455749.417 4   1134349.939 3
  23615368.717     2218846.343 2   1728970.147 1
 91  7 30  4 30  0.0000000  0  4 21 11 23 17
  20765297.587     -364371.635 4   -283925.257 3
  22189142.074    -1608451.399 4  -1253338.026 2
  21653170.424     1488343.122 4   1159747.635 3
  23624766.610     2268251.631 2   1767467.768 1
 91  7 30  4 30 15.0000000  0  4 21 11 23 17
  20764136.790     -370451.575 4   -288662.854 3
  22183144.731    -1639965.555 3  -1277894.499 2
  21659378.828     1520974.269 4   1185174.512 3
  23634177.399     2317704.174 2   1806002.162 1
 91  7 30  4 30 30.0000000  0  4 21 11 23 17
  20762997.578     -376459.830 4   -293344.595 3
  22177173.459    -1671357.939 3  -1302356.062 2
  21665596.523     1553646.124 4   1210633.095 3
  23643592.385     2367207.442 2   1844576.082 1
 91  7 30  4 30 45.0000000  0  4 21 11 23 17
  20761864.065     -382400.869 4   -297973.956 3
  22171221.381    -1702632.634 3  -1326725.941 2
  21671820.510     1586354.187 4   1236119.901 3
  23653023.853     2416756.881 2   1883186.043 1
 91  7 30  4 31  0.0000000  0  4 21 11 23 17
  20760746.134     -388271.891 4   -302548.763 3
  22165290.288    -1733786.424 3  -1351001.598 2
  21678051.695     1619101.226 4   1261637.080 2
  23662461.916     2466355.170 2   1921833.996 1
 91  7 30  4 31 15.0000000  0  4 21 11 23 17
  20759641.099     -394078.434 4   -307073.325 3
  22159384.977    -1764824.299 4  -1375186.927 2
  21684290.977     1651881.640 4   1287180.253 3
  23671906.280     2515996.857 2   1960515.818 1
 91  7 30  4 31 30.0000000  0  4 21 11 23 17
  20758552.258     -399814.982 4   -311543.338 3
  22153505.144    -1795740.429 4  -1399277.403 2
  21690534.752     1684700.736 4   1312753.583 3
  23681361.139     2565687.391 2   1999235.678 1
 91  7 30  4 31 45.0000000  0  4 21 11 23 17
  20757471.801     -405486.919 4   -315963.012 3
  22147640.012    -1826539.945 4  -1423277.008 2
  21696789.023     1717553.236 4   1338352.935 2
  23690836.677     2615421.349 2   2037989.347 1
 91  7 30  4 32  0.0000000  0  4 21 11 23 17
  20756405.436     -411093.068 4   -320331.421 3
  22141802.146    -1857221.160 4  -1447184.426 2
  21703046.296     1750440.024 4   1363979.003 3
  23700308.315     2665199.626 2   2076777.600 1
 91  7 30  4 32 15.0000000  0  4 21 11 23 17
  20755350.474     -416630.602 4   -324646.364 3
  22135988.571    -1887780.821 4  -1470997.127 2
  21709311.055     1783363.841 4   1389633.921 2
  23709783.556     2715024.971 2   2115602.482 1
 91  7 30  4 32 30.0000000  0  4 21 11 23 17
  20754310.494     -422104.401 4   -328911.644 3
  22130194.785    -1918223.373 4  -1494718.585 2
  21715583.012     1816319.851 4   1415313.938 2
  23719268.692     2764892.670 2   2154460.421 1
 91  7 30  4 32 45.0000000  0  4 21 11 23 17
  20753278.601     -427513.579 4   -333126.574 3
  22124424.382    -1948547.475 4  -1518347.730 2
  21721860.370     1849308.720 4   1441019.549 2
  23728766.113     2814803.545 2   2193351.953 1
 91  7 30  4 33  0.0000000  0  4 21 11 23 17
  20752264.709     -432853.892 4   -337287.838 3
  22118677.362    -1978748.637 4  -1541881.067 2
  21728145.215     1882334.663 4   1466754.046 2
  23738278.532     2864761.618 2   2232280.278 1
 91  7 30  4 33 15.0000000  0  4 21 11 23 17
  20751262.796     -438124.551 4   -341394.821 3
  22112955.218    -2008825.674 4  -1565317.714 2
  21734435.460     1915398.176 4   1492517.831 2
  23747791.544     2914767.578 2   2271245.961 1
 91  7 30  4 33 30.0000000  0  4 21 11 23 17
  20750271.388     -443330.173 4   -345451.130 3
  22107254.362    -2038782.466 4  -1588660.650 2
  21740735.303     1948495.003 4   1518307.576 2
  23757318.953     2964817.016 2   2310245.475 1
 91  7 30  4 33 45.0000000  0  4 21 11 23 17
  20749293.163     -448470.456 4   -349456.532 3
  22101578.094    -2068618.607 4  -1611909.565 2
  21747039.342     1981625.138 4   1544123.268 3
  23766850.550     3014909.788 2   2349278.764 1
 91  7 30  4 34  0.0000000  0  4 21 11 23 17
  20748323.935     -453548.776 4   -353413.648 3
  22095921.310    -2098336.967 4  -1635066.710 2
  21753351.470     2014785.119 4   1569962.212 2
  23776398.340     3065042.752 2   2388343.400 1
 91  7 30  4 34 15.0000000  0  4 21 11 23 17
  20747371.790     -458560.456 4   -357318.833 3
  22090290.308    -2127932.478 4  -1658128.121 2
  21759666.895     2047979.582 4   1595828.036 2
  23785935.940     3115220.287 2   2427442.740 1
 91  7 30  4 34 30.0000000  0  4 21 11 23 17
  20746432.244     -463506.713 4   -361173.034 3
  22084680.298    -2157406.058 4  -1681094.521 2
  21765989.223     2081207.138 4   1621719.637 3
  23795492.421     3165441.269 2   2466575.891 1
 91  7 30  4 34 45.0000000  0  4 21 11 23 17
  20745505.585     -468379.420 4   -364969.938 3
  22079096.961    -2186749.046 4  -1703959.170 2
  21772319.935     2114476.072 4   1647643.484 2
  23805060.297     3215713.632 2   2505749.167 1
 91  7 30  4 35  0.0000000  0  4 21 11 23 17
  20744591.822     -473181.913 4   -368712.124 3
  22073537.008    -2215964.379 4  -1726724.341 2
  21778658.447     2147782.922 4   1673596.886 2
  23814636.270     3266034.114 2   2544959.824 1
 91  7 30  4 35 15.0000000  0  4 21 11 23 17
  20743687.045     -477919.397 4   -372403.653 3
  22068001.337    -2245056.916 4  -1749393.838 2
  21785002.361     2181122.148 4   1699575.512 2
  23824215.541     3316397.361 2   2584203.885 1
 91  7 30  4 35 30.0000000  0  4 21 11 23 17
  20742801.159     -482589.031 4   -376042.303 3
  22062489.354    -2274023.423 4  -1771965.118 2
  21791354.057     2214496.719 4   1725581.671 2
  23833815.795     3366806.079 2   2623483.394 1
 91  7 30  4 35 45.0000000  0  4 21 11 23 17
  20741924.565     -487192.322 4   -379629.270 3
  22057000.754    -2302864.924 4  -1794439.002 2
  21797709.661     2247905.056 4   1751614.150 2
  23843409.454     3417258.852 2   2662797.169 1
 91  7 30  4 36  0.0000000  0  4 21 11 23 17
  20741061.163     -491729.637 4   -383164.821 3
  22051535.843    -2331581.363 4  -1816815.427 2
  21804074.855     2281346.706 4   1777672.589 2
  23853025.597     3467755.294 2   2702145.083 1
 91  7 30  4 36 15.0000000  0  4 21 11 23 17
  20740208.248     -496200.373 4   -386648.496 3
  22046097.003    -2360171.941 4  -1839093.780 2
  21810446.645     2314821.952 4   1803757.201 2
  23862645.937     3518295.512 2   2741526.968 1
 91  7 30  4 36 30.0000000  0  4 21 11 23 17
  20739373.029     -500605.841 4   -390081.305 3
  22040677.053    -2388637.472 4  -1861274.699 2
  21816821.428     2348329.610 4   1829867.076 2
  23872265.378     3568878.343 2   2780942.119 1
 91  7 30  4 36 45.0000000  0  4 21 11 23 17
  20738546.202     -504944.305 4   -393461.915 3
  22035286.488    -2416975.746 4  -1883356.444 2
  21823205.206     2381871.488 4   1856003.596 2
  23881905.803     3619505.869 2   2820392.154 1
 91  7 30  4 37  0.0000000  0  4 21 11 23 17
  20737734.069     -509210.076 4   -396785.873 3
  22029919.308    -2445180.623 4  -1905334.245 2
  21829591.392     2415453.040 4   1882171.047 2
  23891544.728     3670183.350 2   2859881.067 1
 91  7 30  4 37 15.0000000  0  4 21 11 23 17
  20736935.722     -513407.419 4   -400056.512 3
  22024576.103    -2473255.907 4  -1927211.077 2
  21835992.857     2449070.089 4   1908366.149 2
  23901195.344     3720906.424 2   2899405.506 1
 91  7 30  4 37 30.0000000  0  4 21 11 23 17
  20736151.762     -517538.227 4   -403275.305 3
  22019258.385    -2501203.258 4  -1948988.206 2
  21842393.125     2482720.433 4   1934587.206 2
  23910858.559     3771673.111 2   2938963.901 1
 91  7 30  4 37 45.0000000  0  5 21 11 23 12 17
  20735375.899     -521606.271 4   -406445.199 3
  22013964.347    -2529025.993 4  -1970668.250 2
  21848803.890     2516400.213 4   1960831.192 3
  24218164.711           0.045 2         0.338 1
  23920530.761     3822479.837 2   2978553.528 1
 91  7 30  4 38  0.0000000  0  5 21 11 23 12 17
  20734615.925     -525602.419 4   -409559.063 3
  22008694.302    -2556714.556 4  -1992243.722 2
  21855218.547     2550118.828 4   1987105.436 3
  24214995.010      -16664.812 2    -12985.229 1
  23930207.762     3873335.403 2   3018181.221 1
 91  7 30  4 38 15.0000000  0  5 21 11 23 12 17
  20733864.946     -529532.342 4   -412621.324 3
  22003451.524    -2584274.298 4  -2013718.834 2
  21861642.801     2583870.393 4   2013405.362 2
  24211848.683      -33204.920 2    -25873.599 1
  23939894.360     3924234.025 2   3057842.412 1
 91  7 30  4 38 30.0000000  0  5 21 11 23 12 17
  20733133.747     -533393.467 4   -415629.971 3
  21998230.044    -2611702.285 4  -2035091.259 2
  21868072.150     2617657.401 4   2039732.908 2
  24208724.850      -49617.390 2    -38662.493 1
  23949584.545     3975178.477 2   3097539.364 1
 91  7 30  4 38 45.0000000  0  5 21 11 23 12 17
  20732409.449     -537178.179 4   -418579.081 3
  21993037.033    -2638990.449 4  -2056354.752 2
  21874511.691     2651487.366 4   2066093.918 2
  24205626.494      -65894.191 2    -51345.724 1
  23959292.127     4026176.107 2   3137277.735 1
 91  7 30  4 39  0.0000000  0  5 21 11 23 12 17
  20731704.644     -540897.844 4   -421477.507 3
  21987868.916    -2666149.743 4  -2077517.816 2
  21880952.435     2685348.906 4   2092479.532 2
  24202546.723      -82046.434 2    -63931.787 1
  23969006.000     4077215.611 2   3177048.741 1
 91  7 30  4 39 15.0000000  0  5 21 11 23 12 17
  20731010.317     -544545.780 4   -424320.037 3
  21982730.176    -2693173.005 4  -2098574.889 2
  21887404.863     2719248.735 4   2118894.989 2
  24199495.735      -98066.986 2    -76415.328 1
  23978722.875     4128303.522 2   3216857.440 1
 91  7 30  4 39 30.0000000  0  5 21 11 23 12 17
  20730323.799     -548131.595 4   -427114.160 3
  21977610.020    -2720069.535 4  -2119533.203 2
  21893866.591     2753176.853 4   2145332.493 3
  24196471.429     -113965.122 2    -88803.446 1
  23988452.043     4179430.168 2   3256696.361 1
 91  7 30  4 39 45.0000000  0  5 21 11 23 12 17
  20729660.656     -551641.241 4   -429848.933 3
  21972517.741    -2746824.988 4  -2140381.584 2
  21900322.918     2787147.196 4   2171802.882 2
  24193478.001     -129726.472 2   -101085.035 1
  23998188.104     4230609.323 2   3296576.169 1
 91  7 30  4 40  0.0000000  0  5 21 11 23 12 17
  20729006.509     -555082.408 4   -432530.351 3
  21967450.948    -2773446.576 4  -2161125.658 2
  21906795.745     2821152.255 4   2198300.347 2
  24190497.766     -145358.386 2   -113265.715 1
  24007932.855     4281833.338 2   3336490.937 1
 91  7 30  4 40 15.0000000  0  5 21 11 23 12 17
  20728358.355     -558462.635 4   -435164.287 3
  21962411.142    -2799941.527 4  -2181771.055 2
  21913273.353     2855184.239 4   2224818.772 2
  24187554.106     -160868.033 2   -125351.097 1
  24017686.305     4333094.617 2   3376434.747 1
 91  7 30  4 40 30.0000000  0  5 21 11 23 12 17
  20727728.795     -561774.502 4   -437744.940 3
  21957393.812    -2826302.093 4  -2202311.740 2
  21919753.666     2889250.480 4   2251363.898 2
  24184622.731     -176247.629 2   -137335.192 1
  24027456.237     4384400.365 2   3416413.212 1
 91  7 30  4 40 45.0000000  0  5 21 11 23 12 17
  20727114.521     -565018.165 4   -440272.451 3
  21952402.264    -2852527.893 4  -2222747.398 2
  21926241.779     2923350.987 4   2277935.728 2
  24181722.845     -191496.870 2   -149217.687 1
  24037227.975     4435750.663 2   3456426.352 1
 91  7 30  4 41  0.0000000  0  5 21 11 23 12 17
  20726508.039     -568195.010 4   -442747.903 3
  21947441.002    -2878619.892 4  -2243078.808 2
  21932739.185     2957484.218 4   2304533.054 2
  24178847.233     -206616.747 2   -160999.405 1
  24047008.403     4487143.831 2   3496472.960 1
 91  7 30  4 41 15.0000000  0  5 21 11 23 12 17
  20725921.040     -571301.090 4   -445168.211 3
  21942496.823    -2904573.855 4  -2263302.658 2
  21939241.380     2991654.134 4   2331158.956 2
  24175997.708     -221603.041 2   -172676.989 1
  24056802.923     4538583.716 2   3536555.924 1
 91  7 30  4 41 30.0000000  0  5 21 11 23 12 17
  20725340.645     -574339.254 4   -447535.599 3
  21937588.923    -2930392.328 4  -2283420.927 2
  21945748.671     3025857.742 4   2357811.123 2
  24173169.168     -236458.396 2   -184252.534 1
  24066595.043     4590067.623 2   3576673.206 1
 91  7 30  4 41 45.0000000  0  5 21 11 23 12 17
  20724777.632     -577305.156 4   -449846.678 3
  21932699.607    -2956070.514 4  -2303429.887 2
  21952265.559     3060099.163 4   2384492.756 2
  24170367.605     -251178.127 2   -195722.474 1
  24076402.458     4641599.622 2   3616827.998 1
 91  7 30  4 42  0.0000000  0  5 21 11 23 12 17
  20724224.215     -580202.648 4   -452104.446 3
  21927840.568    -2981611.913 4  -2323332.251 2
  21958786.950     3094374.647 4   2411200.927 2
  24167593.622     -265765.736 2   -207089.395 1
  24086208.965     4693175.592 2   3657017.019 1
 91  7 30  4 42 15.0000000  0  5 21 11 23 12 17
  20723686.094     -583031.307 4   -454308.586 3
  21923004.022    -3007015.639 4  -2343127.341 2
  21965316.726     3128684.510 4   2437935.901 2
  24164839.734     -280220.521 2   -218352.818 1
  24096038.263     4744796.023 2   3697240.673 1
 91  7 30  4 42 30.0000000  0  5 21 11 23 12 17
  20723163.556     -585789.625 4   -456457.913 3
  21918195.048    -3032279.718 4  -2362813.618 2
  21971853.403     3163030.235 4   2464698.796 2
  24162118.817     -294540.382 2   -229511.148 1
  24105870.553     4796462.454 2   3737500.190 1
 91  7 30  4 42 45.0000000  0  5 21 11 23 12 17
  20722649.412     -588478.846 4   -458553.395 3
  21913416.061    -3057405.197 4  -2382391.894 2
  21978394.573     3197410.585 4   2491488.695 2
  24159416.782     -308726.289 2   -240565.065 1
  24115707.346     4848173.763 2   3777794.660 1
 91  7 30  4 43  0.0000000  0  5 21 11 23 12 17
  20722148.756     -591108.770 4   -460602.673 3
  21908658.050    -3082401.503 4  -2401869.519 2
  21984942.340     3231815.595 4   2518297.783 2
  24156740.835     -322787.921 2   -251522.162 1
  24125550.429     4899919.859 2   3818116.282 1
 91  7 30  4 43 15.0000000  0  5 21 11 23 12 17
  20721658.894     -593673.082 4   -462600.822 3
  21903930.323    -3107261.956 4  -2421241.274 2
  21991495.804     3266251.399 4   2545130.881 2
  24154086.770     -336718.609 2   -262377.178 1
  24135410.299     4951706.859 2   3858469.719 1
 91  7 30  4 43 30.0000000  0  5 21 11 23 12 17
  20721185.522     -596168.034 4   -464544.934 3
  21899222.988    -3131982.312 4  -2440503.869 2
  21998053.762     3300721.813 4   2571990.951 2
  24151463.287     -350514.235 2   -273127.040 1
  24145274.375     5003538.683 2   3898858.220 1
 91  7 30  4 43 45.0000000  0  5 21 11 23 12 17
  20720723.545     -598597.129 4   -466437.726 3
  21894548.615    -3156565.676 4  -2459659.722 2
  22004619.816     3335223.347 4   2598875.265 2
  24148859.592     -364177.852 2   -283773.982 1
  24155144.445     5055411.715 2   3939278.668 1
 91  7 30  4 44  0.0000000  0  5 21 11 23 12 17
  20720276.549     -600951.354 4   -468272.160 3
  21889897.338    -3181002.758 4  -2478701.586 2
  22011193.967     3369764.783 4   2625790.680 2
  24146292.770     -377700.138 2   -294310.782 1
  24165026.503     5107334.554 2   3979738.012 1
 91  7 30  4 44 15.0000000  0  5 21 11 23 12 17
  20719842.152     -603226.302 4   -470044.829 3
  21885274.243    -3205288.653 4  -2497625.635 2
  22017772.612     3404350.639 4   2652740.706 2
  24143744.532     -391076.294 2   -304733.706 1
  24174924.450     5159311.640 2   4020239.547 1
 91  7 30  4 44 30.0000000  0  5 21 11 23 12 17
  20719425.737     -605428.891 4   -471761.124 3
  21880679.618    -3229430.076 4  -2516437.107 2
  22024361.753     3438973.978 4   2679719.924 2
  24141229.572     -404312.958 2   -315047.940 1
  24184820.599     5211336.098 2   4060778.084 1
 91  7 30  4 44 45.0000000  0  5 21 11 23 12 17
  20719017.123     -607562.028 4   -473423.293 3
  21876113.778    -3253429.490 4  -2535137.939 2
  22030956.583     3473631.649 4   2706725.901 2
  24138729.906     -417412.692 2   -325255.539 1
  24194722.141     5263404.943 2   4101351.181 1
 91  7 30  4 45  0.0000000  0  5 21 11 23 12 17
  20718629.789     -609621.485 4   -475028.053 3
  21871572.524    -3277282.499 4  -2553724.689 2
  22037560.112     3508327.743 4   2733761.815 2
  24136272.506     -430371.180 2   -335353.045 1
  24204641.674     5315522.061 2   4141961.890 1
 91  7 30  4 45 15.0000000  0  5 21 11 23 12 17
  20718247.254     -611613.452 4   -476580.211 3
  21867062.446    -3300994.646 4  -2572201.656 2
  22044167.838     3543056.318 4   2760823.046 2
  24133831.892     -443193.987 2   -345344.808 1
  24214569.600     5367681.468 2   4182605.540 1
 91  7 30  4 45 30.0000000  0  5 21 11 23 12 17
  20717879.412     -613534.676 4   -478077.262 3
  21862576.954    -3324562.350 4  -2590566.082 2
  22050785.161     3577820.496 4   2787912.009 2
  24131420.961     -455877.662 2   -355228.160 1
  24224504.122     5419886.405 2   4223284.736 1
 91  7 30  4 45 45.0000000  0  5 21 11 23 12 17
  20717528.052     -615384.275 4   -479518.498 3
  21858118.738    -3347984.377 4  -2608816.997 2
  22057409.072     3612621.013 4   2815029.295 2
  24129026.224     -468420.959 2   -365002.146 1
  24234450.039     5472137.595 2   4263999.865 1
 91  7 30  4 46  0.0000000  0  5 21 11 23 12 17
  20717189.291     -617164.265 4   -480905.484 3
  21853692.002    -3371262.389 4  -2626955.689 2
  22064038.680     3647455.760 4   2842173.252 2
  24126663.857     -480825.563 2   -374668.083 1
  24244399.848     5524432.780 2   4304749.348 1
 91  7 30  4 46 15.0000000  0  5 21 11 23 12 17
  20716864.909     -618874.546 4   -482238.150 3
  21849287.157    -3394396.002 4  -2644981.856 2
  22070673.392     3682324.602 4   2869343.780 2
  24124333.869     -493091.325 2   -384225.739 1
  24254366.148     5576771.924 2   4345533.058 1
 91  7 30  4 46 30.0000000  0  5 21 11 23 12 17
  20716552.829     -620511.999 4   -483514.079 3
  21844914.080    -3417381.685 4  -2662892.768 2
  22077311.996     3717230.925 4   2896543.514 2
  24122026.968     -505214.528 2   -393672.369 1
  24264327.360     5629158.255 2   4386353.511 1
 91  7 30  4 46 45.0000000  0  5 21 11 23 12 17
  20716256.333     -622074.687 4   -484731.746 3
  21840567.693    -3440217.139 4  -2680686.606 2
  22083964.089     3752176.488 4   2923773.820 2
  24119749.741     -517193.028 2   -403006.242 1
  24274309.242     5681593.679 2   4427212.204 1
 91  7 30  4 47  0.0000000  0  5 21 11 23 12 17
  20715973.927     -623570.722 4   -485897.468 3
  21836248.877    -3462910.086 4  -2698369.394 2
  22090619.785     3787153.129 4   2951028.349 2
  24117492.904     -529034.614 2   -412233.426 1
  24284292.032     5734069.848 2   4468102.699 1
 91  7 30  4 47 15.0000000  0  5 21 11 23 12 17
  20715700.822     -624990.327 4   -487003.636 3
  21831962.144    -3485450.410 4  -2715933.266 2
  22097285.969     3822170.557 4   2978314.649 2
  24115262.452     -540729.216 2   -421346.130 1
  24294284.114     5786596.506 2   4509032.507 1
 91  7 30  4 47 30.0000000  0  5 21 11 23 12 17
  20715440.596     -626344.558 4   -488058.863 3
  21827697.896    -3507848.865 4  -2733386.592 2
  22103952.755     3857217.633 4   3005624.052 2
  24113064.074     -552287.535 2   -430352.540 1
  24304287.887     5839162.438 2   4549992.943 1
 91  7 30  4 47 45.0000000  0  5 21 11 23 12 17
  20715198.666     -627633.293 4   -489063.058 3
  21823460.930    -3530104.922 4  -2750728.945 2
  22110629.130     3892294.530 4   3032956.701 2
  24110900.168     -563709.171 2   -439252.496 1
  24314294.662     5891767.889 2   4590984.128 1
 91  7 30  4 48  0.0000000  0  5 21 11 23 12 17
  20714966.325     -628850.513 4   -490011.523 3
  21819256.344    -3552212.199 4  -2767955.383 2
  22117311.202     3927407.101 4   3060317.152 2
  24108752.457     -574987.892 2   -448041.104 1
  24324310.128     5944418.641 2   4632010.625 1
 91  7 30  4 48 15.0000000  0  5 21 11 23 12 17
  20714745.676     -630001.360 4   -490908.269 3
  21815076.040    -3574175.435 4  -2785069.569 2
  22123995.674     3962550.259 4   3087701.421 2
  24106623.033     -586128.438 2   -456721.975 1
  24334344.186     5997109.506 2   4673068.398 1
 91  7 30  4 48 30.0000000  0  5 21 11 23 12 17
  20714541.517     -631087.078 4   -491754.269 3
  21810925.706    -3595995.544 4  -2802072.236 2
  22130688.242     3997722.590 4   3115108.437 2
  24104531.676     -597131.731 2   -465295.965 1
  24344376.438     6049838.982 2   4714156.262 1
 91  7 30  4 48 45.0000000  0  5 21 11 23 12 17
  20714351.153     -632091.541 4   -492536.958 3
  21806802.368    -3617656.189 4  -2818950.644 2
  22137390.705     4032940.159 4   3142550.688 2
  24102464.314     -607981.392 2   -473750.216 1
  24354422.189     6102623.041 2   4755286.661 1
 91  7 30  4 49  0.0000000  0  5 21 11 23 12 17
  20714170.979     -633033.224 4   -493270.717 3
  21802706.601    -3639175.427 4  -2835718.853 2
  22144097.958     4068184.451 4   3170013.769 2
  24100432.620     -618695.591 2   -482098.943 1
  24364470.329     6155443.496 2   4796445.424 1
 91  7 30  4 49 15.0000000  0  5 21 11 23 12 17
  20714000.700     -633914.050 4   -493957.054 3
  21798640.814    -3660554.823 4  -2852378.111 2
  22150807.314     4103453.449 3   3197496.110 2
  24098411.719     -629276.001 2   -490343.349 1
  24374539.759     6208298.077 2   4837630.767 1
 91  7 30  4 49 30.0000000  0  5 21 11 23 12 17
  20713849.302     -634728.016 4   -494591.295 3
  21794599.317    -3681788.103 4  -2868923.514 2
  22157523.868     4138753.094 3   3225002.328 2
  24096429.191     -639716.223 2   -498478.587 1
  24384596.294     6261192.744 2   4878847.380 1
 91  7 30  4 49 45.0000000  0  5 21 11 23 12 17
  20713709.299     -635467.322 4   -495167.368 3
  21790587.189    -3702866.894 4  -2885348.525 2
  22164251.206     4174091.291 3   3252538.579 2
  24094476.643     -650008.080 2   -506498.169 1
  24394675.321     6314135.398 2   4920101.370 1
 91  7 30  4 50  0.0000000  0  5 21 11 23 12 17
  20713577.986     -636142.678 4   -495693.610 3
  21786602.650    -3723801.613 4  -2901661.274 2
  22170979.155     4209457.285 3   3280096.493 2
  24092530.987     -660162.044 2   -514410.324 1
  24404754.942     6367115.101 2   4961384.174 1
 91  7 30  4 50 15.0000000  0  5 21 11 23 12 17
  20713462.265     -636754.549 4   -496170.378 3
  21782648.684    -3744592.474 4  -2917861.921 2
  22177716.989     4244850.428 3   3307675.563 2
  24090638.101     -670178.391 2   -522215.224 1
  24414844.457     6420131.036 2   5002695.250 1
 91  7 30  4 50 30.0000000  0  5 21 11 23 12 17
  20713358.837     -637301.850 4   -496596.831 3
  21778719.008    -3765238.090 4  -2933949.392 2
  22184457.223     4280271.716 3   3335276.566 2
  24088749.708     -680055.644 2   -529911.737 1
  24424937.271     6473184.536 2   5044035.687 1
 91  7 30  4 50 45.0000000  0  5 21 11 23 12 17
  20713267.407     -637766.898 4   -496959.195 3
  21774821.101    -3785720.365 4  -2949909.593 2
  22191207.046     4315738.802 3   3362913.254 2
  24086917.671     -689775.803 2   -537485.848 1
  24435047.168     6526293.187 2   5085418.961 1
 91  7 30  4 51  0.0000000  0  5 21 11 23 12 17
  20713196.053     -638172.198 4   -497274.995 3
  21770950.782    -3806061.475 4  -2965759.797 2
  22197958.675     4351229.166 4   3390568.069 2
  24085057.164     -699361.234 2   -544955.024 1
  24445163.661     6579434.386 2   5126827.656 1
 91  7 30  4 51 15.0000000  0  5 21 11 23 12 17
  20713125.004     -638517.562 4   -497544.080 3
  21767105.949    -3826260.881 4  -2981499.574 2
  22204719.290     4386743.013 3   3418241.195 2
  24083280.592     -708811.382 2   -552318.715 1
  24455275.661     6632608.193 2   5168261.744 1
 91  7 30  4 51 30.0000000  0  5 21 11 23 12 17
  20713073.736     -638802.639 4   -497766.198 3
  21763288.985    -3846317.846 4  -2997128.362 2
  22211478.414     4422280.649 3   3445932.849 2
  24081522.011     -718125.465 2   -559576.443 1
  24465403.558     6685814.797 2   5209721.408 1
 91  7 30  4 51 45.0000000  0  5 21 11 23 12 17
  20713030.869     -639018.111 4   -497934.083 3
  21759502.907    -3866222.642 4  -3012638.584 2
  22218247.729     4457851.346 3   3473650.278 2
  24079756.232     -727294.174 2   -566720.831 1
  24475530.539     6739063.317 2   5251213.747 1
 91  7 30  4 52  0.0000000  0  5 21 11 23 12 17
  20713004.484     -639169.354 4   -498051.921 3
  21755743.511    -3885980.582 4  -3028034.361 2
  22225023.037     4493449.501 3   3501389.085 2
  24078059.103     -736322.533 2   -573755.830 1
  24485678.521     6792348.432 2   5292734.581 1
 91  7 30  4 52 15.0000000  0  5 21 11 23 12 17
  20712988.299     -639252.987 4   -498117.069 3
  21752011.694    -3905587.970 4  -3043312.829 2
  22231801.348     4529078.457 3   3529151.914 2
  24076355.386     -745206.944 2   -580678.750 1
  24495827.393     6845673.327 2   5334286.440 1
 91  7 30  4 52 30.0000000  0  5 21 11 23 12 17
  20712985.001     -639271.556 4   -498131.527 3
  21748306.559    -3925046.903 4  -3058475.618 2
  22238587.449     4564735.739 3   3556936.796 2
  24074692.441     -753949.534 2   -587491.097 1
  24505974.171     6899035.382 2   5375867.195 1
 91  7 30  4 52 45.0000000  0  5 21 11 23 12 17
  20712990.699     -639225.602 4   -498095.689 3
  21744635.906    -3944357.409 4  -3073522.751 2
  22245380.741     4600420.815 3   3584743.343 2
  24073057.670     -762550.511 2   -594193.144 1
  24516134.133     6952434.177 2   5417476.589 1
 91  7 30  4 53  0.0000000  0  5 21 11 23 12 17
  20713016.778     -639110.540 4   -498006.019 3
  21740987.127    -3963514.755 4  -3088450.534 2
  22252176.737     4636138.223 3   3612575.086 2
  24071445.985     -771005.091 2   -600781.113 1
  24526305.193     7005873.867 2   5459117.822 1
 91  7 30  4 53 15.0000000  0  5 21 11 23 12 17
  20713048.555     -638921.980 4   -497859.069 3
  21737371.328    -3982514.219 4  -3103255.305 2
  22258982.330     4671892.252 3   3640435.374 2
  24069865.475     -779308.688 2   -607251.417 1
  24536486.147     7059358.848 2   5500794.419 1
 91  7 30  4 53 30.0000000  0  5 21 11 23 12 17
  20713098.620     -638667.211 4   -497660.530 3
  21733785.509    -4001362.711 4  -3117942.427 2
  22265789.713     4707675.455 3   3668318.389 2
  24068298.463     -787468.210 2   -613609.429 1
  24546655.707     7112881.807 2   5542500.548 1
 91  7 30  4 53 45.0000000  0  4 21 11 23 12
  20713160.079     -638344.490 4   -497409.039 3
  21730226.677    -4020058.321 4  -3132510.416 2
  22272607.295     4743489.553 3   3696225.472 2
  24066772.817     -795481.863 2   -619853.846 1
 91  7 30  4 54  0.0000000  0  4 21 11 23 12
  20713231.128     -637958.567 4   -497108.304 3
  21726701.122    -4038605.348 4  -3146962.634 2
  22279423.978     4779329.600 3   3724152.792 2
  24065290.944     -803354.025 2   -625987.945 1
 91  7 30  4 54 15.0000000  0  4 21 11 23 12
  20713319.269     -637503.289 4   -496753.529 3
  21723199.840    -4056997.475 4  -3161294.148 2
  22286250.250     4815201.685 3   3752105.067 2
  24063825.257     -811078.399 2   -632006.913 1
 91  7 30  4 54 30.0000000  0  4 21 11 23 12
  20713419.398     -636981.281 4   -496346.748 3
  21719726.444    -4075236.891 4  -3175506.657 2
  22293081.618     4851103.230 3   3780080.281 2
  24062372.168     -818657.182 2   -637912.415 1
 91  7 30  4 54 45.0000000  0  4 21 11 23 12
  20713530.024     -636398.317 4   -495892.472 3
  21716283.028    -4093329.017 4  -3189604.415 2
  22299920.183     4887028.581 3   3808074.064 2
  24060951.450     -826095.901 2   -643708.784 1
 91  7 30  4 55  0.0000000  0  4 21 11 23 12
  20713652.036     -635752.064 4   -495388.882 3
  21712869.294    -4111271.134 4  -3203585.269 2
  22306760.547     4922980.040 3   3836088.181 2
  24059569.707     -833391.969 2   -649393.982 1
 91  7 30  4 55 15.0000000  0  4 21 11 23 12
  20713788.741     -635037.330 4   -494831.927 3
  21709484.938    -4129057.785 4  -3217444.983 2
  22313607.515     4958962.818 3   3864126.712 2
  24058210.152     -840539.914 2   -654963.807 1
 91  7 30  4 55 30.0000000  0  4 21 11 23 12
  20713939.834     -634250.959 4   -494219.144 3
  21706131.154    -4146685.553 4  -3231180.893 2
  22320460.765     4994979.839 3   3892191.926 2
  24056882.967     -847536.340 2   -660415.482 1
 91  7 30  4 55 45.0000000  0  4 21 11 23 12
  20714101.728     -633397.805 4   -493554.333 3
  21702804.358    -4164158.909 4  -3244796.478 2
  22327321.213     5031026.273 3   3920280.069 2
  24055578.572     -854385.778 2   -665752.688 1
 91  7 30  4 56  0.0000000  0  4 21 11 23 12
  20714275.907     -632471.518 4   -492832.538 3
  21699511.737    -4181471.330 4  -3258286.679 2
  22334186.766     5067108.235 3   3948395.886 2
  24054306.852     -861081.728 2   -670970.274 1
 91  7 30  4 56 15.0000000  0  4 21 11 23 12
  20714466.874     -631476.441 4   -492057.139 3
  21696247.604    -4198626.797 4  -3271654.558 2
  22341060.110     5103221.594 3   3976536.170 2
  24053060.610     -867628.216 2   -676071.376 1
 91  7 30  4 56 30.0000000  0  4 21 11 23 12
  20714669.829     -630413.590 4   -491228.938 3
  21693014.637    -4215626.055 4  -3284900.718 2
  22347941.839     5139365.207 3   4004700.016 2
  24051840.456     -874026.044 2   -681056.663 1
 91  7 30  4 56 45.0000000  0  4 21 11 23 12
  20714884.187     -629281.076 4   -490346.447 3
  21689806.257    -4232466.815 4  -3298023.377 2
  22354822.076     5175540.856 3   4032888.827 2
  24050654.478     -880272.962 2   -685924.358 1
 91  7 30  4 57  0.0000000  0  4 21 11 23 12
  20715112.628     -628073.914 4   -489405.787 3
  21686634.454    -4249143.836 4  -3311018.451 2
  22361711.309     5211753.558 3   4061106.517 2
  24049501.176     -886363.848 2   -690670.448 1
 91  7 30  4 57 15.0000000  0  4 21 11 23 12
  20715356.957     -626798.390 4   -488411.857 3
  21683487.237    -4265663.167 4  -3323890.648 2
  22368610.435     5247996.707 3   4089347.930 2
  24048358.666     -892304.838 2   -695299.757 1
 91  7 30  4 57 30.0000000  0  4 21 11 23 12
  20715610.579     -625456.972 4   -487366.581 3
  21680376.291    -4282026.864 4  -3336641.564 2
  22375514.954     5284268.155 3   4117611.384 2
  24047261.728     -898098.015 2   -699813.920 1
 91  7 30  4 57 45.0010000  0  4 21 11 23 12
  21015672.250     -624055.180 4   -486274.267 3
  21977082.381    -4298240.099 4  -3349275.235 2
  22682209.532     5320562.275 3   4145892.527 2
  24345979.733     -903748.745 2   -704217.016 1
 91  7 30  4 58  0.0010000  0  4 21 11 23 12
  20716158.004     -622579.715 4   -485124.543 3
  21674237.438    -4314290.396 4  -3361781.962 2
  22389332.389     5356894.562 3   4174203.388 2
  24045137.394     -909243.920 2   -708498.975 1
 91  7 30  4 58 15.0010000  0  4 21 11 23 12
  20716454.500     -621032.942 4   -483919.246 3
  21671215.226    -4330177.521 4  -3374161.524 2
  22396250.397     5393257.927 3   4202538.470 2
  24044126.198     -914584.700 2   -712660.551 1
 91  7 30  4 58 30.0010000  0  4 21 11 23 12
  20716763.579     -619415.109 4   -482658.587 3
  21668219.102    -4345902.609 4  -3386414.834 2
  22403175.908     5429654.496 3   4230899.435 2
  24043125.489     -919771.569 2   -716702.206 1
 91  7 30  4 58 45.0010000  0  4 21 11 23 12
  20717080.763     -617729.822 4   -481345.375 3
  21665257.451    -4361469.023 4  -3398544.488 2
  22410109.508     5466080.784 3   4259283.550 2
  24042166.451     -924807.996 2   -720626.690 1
 91  7 30  4 59  0.0010000  0  4 21 11 23 12
  20717415.030     -615978.972 4   -479981.060 3
  21662327.586    -4376878.311 4  -3410551.730 2
  22417046.100     5502534.708 3   4287689.205 2
  24041252.985     -929695.577 2   -724435.162 1
 91  7 30  4 59 15.0010000  0  4 21 11 23 12
  20717760.989     -614160.911 4   -478564.380 3
  21659425.292    -4392128.521 4  -3422434.989 2
  22423987.797     5539017.700 3   4316117.518 2
  24040348.217     -934432.429 2   -728126.150 1
 91  7 30  4 59 30.0010000  0  4 21 11 23 12
  20718118.946     -612284.546 4   -477102.268 3
  21656552.977    -4407228.393 4  -3434201.118 2
  22430934.589     5575520.836 3   4344561.521 2
  24039477.617     -939027.266 2   -731706.534 1
 91  7 30  4 59 45.0010000  0  4 21 11 23 12
  20718486.194     -610338.883 4   -475586.164 3
  21653710.651    -4422166.576 4  -3445841.257 2
  22437888.876     5612055.196 3   4373029.843 2
  24038629.205     -943468.938 2   -735167.526 1
 91  7 30  5  0  0.0010000  0  4 21 11 23 12
  20718872.027     -608329.246 4   -474020.204 3
  21650894.395    -4436948.136 4  -3457359.342 2
  22444844.358     5648615.368 3   4401518.280 2
  24037814.664     -947762.563 2   -738513.169 1
 91  7 30  5  0 15.0010000  0  4 21 11 23 12
  20719265.050     -606255.267 4   -472404.121 3
  21648114.419    -4451572.394 4  -3468754.853 2
  22451806.734     5685201.803 3   4430027.208 2
  24037016.621     -951907.428 2   -741742.923 1
 91  7 30  5  0 30.0010000  0  4 21 11 23 12
  20719672.172     -604120.301 4   -470740.498 3
  21645359.326    -4466042.508 4  -3480030.275 2
  22458771.517     5721810.913 3   4458553.781 2
  24036260.844     -955906.726 2   -744859.183 1
 91  7 30  5  0 45.0010000  0  4 21 11 23 12
  20720086.781     -601929.302 4   -469033.213 3
  21642635.417    -4480363.217 4  -3491189.243 2
  22465741.387     5758437.623 3   4487094.075 2
  24035524.253     -959765.150 2   -747865.744 1
 91  7 30  5  1  0.0010000  0  4 21 11 23 12
  20720516.981     -599674.822 4   -467276.463 4
  21639940.885    -4494526.588 4  -3502225.633 2
  22472716.658     5795089.682 3   4515654.119 2
  24034813.741     -963475.007 2   -750756.509 1
 91  7 30  5  1 15.0010000  0  4 21 11 23 12
  20720958.279     -597360.546 4   -465473.123 3
  21637274.230    -4508536.109 4  -3513142.125 2
  22479699.432     5831763.269 3   4544230.932 2
  24034141.314     -967039.744 2   -753534.158 1
 91  7 30  5  1 30.0010000  0  4 21 11 23 12
  20721409.167     -594987.977 4   -463624.356 3
  21634639.648    -4522393.105 4  -3523939.778 2
  22486677.399     5868456.639 3   4572823.166 2
  24033494.059     -970460.680 2   -756199.837 1
 91  7 30  5  1 45.0010000  0  4 21 11 23 12
  20721875.646     -592545.383 4   -461721.021 3
  21632029.654    -4536085.502 4  -3534609.167 2
  22493666.455     5905181.484 3   4601439.927 2
  24032868.094     -973725.976 2   -758744.196 1
 91  7 30  5  2  0.0010000  0  4 21 11 23 12
  20722349.620     -590043.509 4   -459771.497 3
  21629456.236    -4549623.806 4  -3545158.479 2
  22500660.014     5941927.088 3   4630072.862 2
  24032284.698     -976846.192 3   -761175.511 1
 91  7 30  5  2 15.0010000  0  4 21 11 23 12
  20722837.982     -587483.201 4   -457776.448 3
  21626908.600    -4563008.506 4  -3555588.110 2
  22507655.074     5978692.721 3   4658721.411 2
  24031708.195     -979821.929 2   -763494.259 1
 91  7 30  5  2 30.0010000  0  4 21 11 23 12
  20723339.527     -584860.386 4   -455732.686 3
  21624390.944    -4576235.319 4  -3565894.704 2
  22514656.127     6015482.315 3   4687388.620 2
  24031174.568     -982648.962 3   -765697.065 1
 91  7 30  5  2 45.0010000  0  4 21 11 23 12
  20723848.280     -582167.382 4   -453634.224 3
  21621905.963    -4589296.327 4  -3576072.086 2
  22521664.972     6052303.510 3   4716080.467 2
  24030662.221     -985319.331 3   -767777.883 1
 91  7 30  5  3  0.0010000  0  4 21 11 23 12
  20724373.217     -579411.692 4   -451486.917 3
  21619450.961    -4602198.761 4  -3586125.921 2
  22528674.725     6089148.590 3   4744790.923 2
  24030184.652     -987840.367 3   -769742.289 1
 91  7 30  5  3 15.0010000  0  4 21 11 23 12
  20724909.541     -576599.339 4   -449295.469 3
  21617026.847    -4614948.339 4  -3596060.640 2
  22535687.470     6126011.616 3   4773515.349 2
  24029723.870     -990217.942 2   -771594.906 1
 91  7 30  5  3 30.0010000  0  4 21 11 23 12
  20725452.766     -573728.154 4   -447058.173 3
  21614630.304    -4627542.652 4  -3605874.381 2
  22542705.912     6162894.778 3   4802255.476 2
  24029308.058     -992449.604 3   -773333.836 1
 91  7 30  5  3 45.0010000  0  4 21 11 23 12
  20726014.881     -570794.743 4   -444772.393 3
  21612262.545    -4639978.082 4  -3615564.307 2
  22549732.749     6199801.416 3   4831013.900 2
  24028907.837     -994531.812 3   -774956.352 1
 91  7 30  5  4  0.0010000  0  4 21 11 23 12
  20726581.185     -567800.680 4   -442439.349 3
  21609926.859    -4652255.814 4  -3625131.353 2
  22556760.178     6236729.896 3   4859789.338 2
  24028542.682     -996465.816 3   -776463.287 1
 91  7 30  5  4 15.0010000  0  4 21 11 23 12
  20727159.790     -564746.318 4   -440059.315 3
  21607618.754    -4664376.012 4  -3634575.652 2
  22563790.609     6273679.975 3   4888581.603 2
  24028209.915     -998251.898 3   -777855.029 1
 91  7 30  5  4 30.0010000  0  4 21 11 23 12
  20727757.574     -561627.331 4   -437628.921 3
  21605340.331    -4676334.108 4  -3643893.626 2
  22570825.542     6310655.834 3   4917393.973 2
  24027895.131     -999885.540 3   -779127.973 1
 91  7 30  5  4 45.0010000  0  4 21 11 23 12
  20728362.852     -558450.192 4   -435153.226 3
  21603099.087    -4688136.344 4  -3653090.170 2
  22577867.072     6347650.977 3   4946221.353 2
  24027608.528    -1001373.019 3   -780287.045 1
 91  7 30  5  5  0.0010000  0  4 21 11 23 12
  20728976.532     -555208.688 4   -432627.365 3
  21600884.218    -4699776.205 4  -3662160.171 2
  22584909.194     6384671.544 3   4975068.541 2
  24027362.707    -1002707.884 3   -781327.224 1
 91  7 30  5  5 15.0010000  0  4 21 11 23 12
  20729605.491     -551909.143 4   -430056.287 3
  21598694.233    -4711259.853 4  -3671108.446 2
  22591956.718     6421711.199 3   5003930.605 2
  24027127.068    -1003896.360 3   -782253.218 1
 91  7 30  5  5 30.0010000  0  4 21 11 23 12
  20730245.250     -548552.908 4   -427441.030 3
  21596541.426    -4722588.330 4  -3679935.820 2
  22599010.532     6458768.475 3   5032806.401 2
  24026923.808    -1004939.576 3   -783066.053 1
 91  7 30  5  5 45.0010000  0  4 21 11 23 12
  20730896.702     -545136.090 4   -424778.563 3
  21594414.994    -4733757.530 4  -3688639.077 2
  22606067.348     6495847.223 3   5061698.914 2
  24026757.420    -1005833.494 3   -783762.654 1
 91  7 30  5  6  0.0010000  0  4 21 11 23 12
  20731558.641     -541652.229 4   -422063.854 3
  21592323.342    -4744760.734 4  -3697212.986 2
  22613128.055     6532953.955 3   5090613.252 2
  24026619.215    -1006571.482 3   -784337.687 1
 91  7 30  5  6 15.0010000  0  4 21 11 23 12
  20732232.272     -538108.030 4   -419302.133 3
  21590259.574    -4755604.336 4  -3705662.527 2
  22620194.468     6570081.935 3   5119544.131 2
  24026507.394    -1007160.127 3   -784796.335 1
 91  7 30  5  6 30.0010000  0  4 21 11 23 12
  20732921.494     -534505.891 4   -416495.257 3
  21588223.081    -4766290.508 4  -3713989.403 2
  22627264.171     6607228.775 3   5148489.724 2
  24026418.956    -1007601.519 3   -785140.315 1
 91  7 30  5  6 45.0010000  0  4 21 11 23 12
  20733616.118     -530833.322 4   -413633.502 3
  21586222.868    -4776806.736 4  -3722183.853 2
  22634335.976     6644406.717 3   5177459.543 2
  24026371.291    -1007882.996 3   -785359.603 1
 91  7 30  5  7  0.0010000  0  4 21 11 23 12
  20734329.020     -527097.101 4   -410722.157 3
  21584254.431    -4787159.351 4  -3730250.815 2
  22641418.269     6681609.234 3   5206448.505 2
  24026347.907    -1008011.112 3   -785459.428 1
 91  7 30  5  7 15.0010000  0  4 21 11 23 12
  20735050.622     -523299.645 4   -407763.097 3
  21582313.879    -4797350.478 4  -3738191.940 2
  22648500.868     6718833.743 3   5235454.621 2
  24026346.703    -1007988.247 3   -785441.627 1
 91  7 30  5  7 30.0010000  0  4 21 11 23 12
  20735788.111     -519430.966 4   -404748.528 4
  21580408.996    -4807370.010 4  -3745999.353 2
  22655587.366     6756090.084 3   5264485.532 2
  24026385.382    -1007804.257 3   -785298.130 1
 91  7 30  5  7 45.0010000  0  4 21 11 23 12
  20736533.393     -515500.409 4   -401685.749 3
  21578532.295    -4817227.004 4  -3753680.113 2
  22662684.352     6793369.108 3   5293534.109 2
  24026445.934    -1007468.271 3   -785036.345 1
 91  7 30  5  8  0.0010000  0  4 21 11 23 12
  20737296.369     -511501.719 4   -398569.889 3
  21576689.770    -4826915.119 4  -3761229.281 2
  22669782.534     6830676.927 3   5322605.130 2
  24026540.671    -1006973.810 3   -784650.983 1
 91  7 30  5  8 15.0010000  0  4 21 11 23 12
  20738070.129     -507439.517 4   -395404.529 3
  21574875.122    -4836438.669 4  -3768650.209 2
  22676885.217     6868008.780 3   5351694.883 2
  24026667.482    -1006325.492 3   -784145.783 1
 91  7 30  5  8 30.0010000  0  4 21 11 23 12
  20738858.591     -503304.325 4   -392182.285 3
  21573094.659    -4845787.828 4  -3775935.263 2
  22683998.397     6905374.273 3   5380810.854 2
  24026817.981    -1005513.627 3   -783513.135 1
 91  7 30  5  8 45.0010000  0  4 21 11 23 12
  20739658.430     -499100.569 4   -388906.621 3
  21571348.363    -4854966.834 4  -3783087.718 2
  22691111.568     6942768.951 3   5409949.560 2
  24027000.554    -1004542.594 3   -782756.507 1
 91  7 30  5  9  0.0010000  0  4 21 11 23 12
  20740469.673     -494825.459 4   -385575.358 3
  21569636.549    -4863972.876 4  -3790105.402 2
  22698238.534     6980195.389 3   5439113.023 2
  24027218.202    -1003409.434 3   -781873.482 1
 91  7 30  5  9 15.0010000  0  4 21 11 23 12
  20741298.000     -490483.931 4   -382192.334 3
  21567950.221    -4872810.586 4  -3796991.928 2
  22705364.304     7017648.598 3   5468297.326 2
  24027463.430    -1002118.892 3   -780867.722 1
 91  7 30  5  9 30.0010000  0  4 21 11 23 12
  20742133.220     -486074.462 4   -378756.376 3
  21566305.861    -4881478.248 4  -3803745.935 2
  22712493.966     7055130.190 3   5497503.755 2
  24027740.740    -1000669.254 2   -779738.188 1
 91  7 30  5  9 45.0010000  0  4 21 11 23 12
  20742988.830     -481592.211 4   -375263.710 3
  21564689.081    -4889970.861 4  -3810363.544 2
  22719634.124     7092644.970 3   5526736.051 2
  24028043.231     -999055.565 2   -778480.741 1
 91  7 30  5 10  0.0010000  0  4 21 11 23 12
  20743855.827     -477034.032 4   -371711.880 3
  21563106.774    -4898284.953 4  -3816842.052 2
  22726777.876     7130196.191 3   5555996.743 2
  24028384.391     -997274.391 2   -777092.791 1
 91  7 30  5 10 15.0010000  0  4 21 11 23 12
  20744736.618     -472396.834 4   -368098.453 3
  21561559.847    -4906417.256 4  -3823178.898 2
  22733933.923     7167786.785 3   5585288.110 2
  24028760.033     -995322.627 2   -775571.876 1
 91  7 30  5 10 30.0010000  0  4 21 11 23 12
  20745632.399     -467685.870 4   -364427.565 3
  21560045.595    -4914372.770 4  -3829377.999 2
  22741092.971     7205411.338 3   5614605.940 2
  24029163.256     -993205.382 2   -773922.010 1
 91  7 30  5 10 45.0010000  0  4 21 11 23 12
  20746545.263     -462907.196 4   -360703.914 3
  21558561.917    -4922157.439 4  -3835443.970 2
  22748259.810     7243063.832 3   5643945.527 2
  24029596.457     -990928.515 2   -772147.861 1
 91  7 30  5 11  0.0010000  0  4 21 11 23 12
  20747469.523     -458049.807 4   -356918.925 3
  21557115.119    -4929759.998 4  -3841368.023 2
  22755427.845     7280755.550 3   5673315.694 2
  24030060.834     -988480.883 2   -770240.611 1
 91  7 30  5 11 15.0010000  0  4 21 11 23 12
  20748408.772     -453116.876 4   -353075.065 3
  21555701.302    -4937183.493 4  -3847152.563 2
  22762612.370     7318483.117 3   5702713.805 2
  24030559.386     -985865.618 2   -768202.696 1
 91  7 30  5 11 30.0010000  0  4 21 11 23 12
  20749362.112     -448106.991 4   -349171.245 3
  21554324.349    -4944426.276 4  -3852796.279 2
  22769796.895     7356247.686 3   5732140.728 2
  24031088.224     -983081.206 2   -766032.940 1
 91  7 30  5 11 45.0010000  0  4 21 11 23 12
  20750327.450     -443022.887 4   -345209.595 3
  21552982.480    -4951490.820 4  -3858301.110 2
  22776989.517     7394046.649 3   5761594.453 2
  24031656.630     -980130.247 2   -763733.472 1
 91  7 30  5 12  0.0010000  0  4 21 11 23 12
  20751308.667     -437865.613 4   -341190.921 3
  21551672.091    -4958377.910 4  -3863667.678 2
  22784189.032     7431879.040 3   5791074.252 2
  24032236.431     -977013.540 2   -761304.837 1
 91  7 30  5 12 15.0010000  0  4 21 11 23 12
  20752304.280     -432631.407 4   -337112.315 3
  21550394.674    -4965083.787 4  -3868893.025 2
  22791393.947     7469748.447 3   5820582.863 2
  24032867.195     -973727.351 2   -758744.162 1
 91  7 30  5 12 30.0010000  0  4 21 11 23 12
  20753318.775     -427317.748 4   -332971.793 3
  21549153.832    -4971605.572 4  -3873974.926 2
  22798610.851     7507657.356 3   5850122.265 2
  24033529.134     -970268.942 2   -756049.297 1
 91  7 30  5 12 45.0010000  0  4 21 11 23 12
  20754340.171     -421931.025 4   -328774.337 3
  21547947.167    -4977949.455 4  -3878918.204 2
  22805830.155     7545599.289 3   5879687.404 2
  24034213.558     -966644.596 2   -753225.108 1
 91  7 30  5 13  0.0010000  0  4 21 11 23 12
  20755380.151     -416468.182 4   -324517.564 3
  21546772.881    -4984112.219 4  -3883720.357 2
  22813052.756     7583577.424 3   5909280.750 2
  24034934.863     -962851.135 2   -750269.146 1
 91  7 30  5 13 15.0010000  0  4 21 11 23 12
  20756435.122     -410931.123 4   -320202.962 4
  21545636.069    -4990095.649 4  -3888382.766 2
  22820287.041     7621589.577 3   5938900.600 2
  24035694.837     -958890.244 2   -747182.639 1
 91  7 30  5 13 30.0010000  0  4 21 11 23 12
  20757503.581     -405324.218 4   -315833.939 3
  21544529.830    -4995903.920 4  -3892908.685 2
  22827529.431     7659631.578 3   5968543.713 2
  24036477.593     -954766.288 2   -743969.147 1
 91  7 30  5 13 45.0010000  0  4 21 11 23 12
  20758582.834     -399646.583 4   -311409.790 3
  21543459.870    -5001535.905 4  -3897297.234 2
  22834770.617     7697704.396 3   5998210.841 2
  24037287.632     -950478.196 2   -740627.770 1
 91  7 30  5 14  0.0010000  0  4 21 11 23 12
  20759678.271     -393898.966 4   -306931.109 4
  21542421.390    -5006992.225 4  -3901548.914 2
  22842022.299     7735807.123 3   6027901.269 2
  24038146.235     -946026.592 2   -737158.961 1
 91  7 30  5 14 15.0010000  0  4 21 11 23 12
  20760784.205     -388086.964 4   -302402.249 3
  21541413.788    -5012278.285 4  -3905667.911 2
  22849279.670     7773934.052 3   6057610.552 2
  24039010.536     -941417.007 2   -733567.062 1
 91  7 30  5 14 30.0010000  0  4 21 11 23 12
  20761901.839     -382200.986 4   -297815.779 3
  21540444.263    -5017384.285 4  -3909646.611 2
  22856540.645     7812094.770 3   6087346.170 2
  24039910.513     -936639.773 2   -729844.541 1
 91  7 30  5 14 45.0010000  0  4 21 11 23 12
  20763034.454     -376244.179 4   -293174.100 3
  21539504.412    -5022313.146 4  -3913487.272 2
  22863805.214     7850286.227 3   6117105.746 2
  24040858.758     -931697.821 2   -725993.604 1
 91  7 30  5 15  0.0010000  0  4 21 11 23 12
  20764182.652     -370218.929 4   -288479.085 3
  21538596.939    -5027067.253 4  -3917191.765 2
  22871079.084     7888505.779 3   6146887.191 2
  24041834.888     -926593.623 2   -722016.285 1
 91  7 30  5 15 15.0010000  0  4 21 11 23 12
  20765343.449     -364124.085 4   -283729.848 3
  21537726.043    -5031645.248 4  -3920759.030 2
  22878361.043     7926754.470 3   6176691.361 2
  24042834.995     -921325.828 2   -717911.500 1
 91  7 30  5 15 30.0010000  0  4 21 11 23 12
  20766516.540     -357958.453 4   -278925.440 3
  21536891.416    -5036045.711 4  -3924187.959 2
  22885643.594     7965033.729 3   6206519.343 2
  24043864.183     -915893.188 2   -713678.306 1
 91  7 30  5 15 45.0010000  0  4 21 11 23 12
  20767701.916     -351729.651 4   -274071.816 3
  21536088.575    -5040276.173 4  -3927484.424 2
  22892934.548     8003335.931 3   6236365.218 2
  24044938.933     -910303.169 2   -709322.417 1
 91  7 30  5 16  0.0010000  0  4 21 11 23 12
  20768897.195     -345433.835 4   -269165.975 3
  21535316.612    -5044332.438 4  -3930645.141 2
  22900225.808     8041664.833 3   6266231.886 1
  24046023.586     -904551.749 2   -704840.805 1
 91  7 30  5 16 15.0010000  0  4 21 11 23 12
  20770110.753     -339066.917 4   -264204.732 3
  21534575.825    -5048210.387 4  -3933666.915 2
  22907525.452     8080024.507 3   6296122.511 2
  24047155.599     -898634.870 2   -700230.218 1
 91  7 30  5 16 30.0010000  0  4 21 11 23 12
  20771334.502     -332630.183 4   -259189.077 3
  21533872.808    -5051911.240 4  -3936550.685 2
  22914832.294     8118413.780 3   6326036.226 2
  24048318.499     -892553.674 2   -695491.577 1
 91  7 30  5 16 45.0010000  0  4 21 11 23 12
  20772571.452     -326123.991 4   -254119.312 3
  21533202.178    -5055435.141 4  -3939296.584 2
  22922143.334     8156832.144 3   6355972.608 2
  24049499.975     -886308.336 2   -690625.071 1
 91  7 30  5 17  0.0010000  0  4 21 11 23 12
  20773823.679     -319552.957 4   -248999.006 3
  21532565.717    -5058786.583 4  -3941908.086 2
  22929455.865     8195274.735 3   6385927.870 2
  24050736.323     -879903.514 2   -685634.268 1
 91  7 30  5 17 15.0010000  0  4 21 11 23 12
  20775085.504     -312920.309 4   -243830.710 3
  21531959.836    -5061968.597 4  -3944387.568 2
  22936777.104     8233738.650 3   6415899.741 1
  24051965.473     -873342.400 2   -680521.731 1
 91  7 30  5 17 30.0010000  0  4 21 11 23 12
  20776358.725     -306227.637 4   -238615.623 4
  21531386.928    -5064982.608 4  -3946736.148 2
  22944098.630     8272222.138 3   6445886.865 2
  24053243.186     -866626.432 2   -675288.490 1
 91  7 30  5 17 45.0010000  0  4 21 11 23 12
  20777644.535     -299463.075 4   -233344.525 3
  21530849.400    -5067816.624 4  -3948944.461 2
  22951430.357     8310737.001 3   6475898.438 2
  24054556.577     -859743.660 2   -669925.269 1
 91  7 30  5 18  0.0010000  0  4 21 11 23 12
  20778944.734     -292634.664 4   -228023.680 3
  21530341.555    -5070478.507 4  -3951018.657 2
  22958764.474     8349275.220 3   6505928.224 2
  24055896.047     -852701.986 2   -664438.204 1
 91  7 30  5 18 15.0010000  0  4 21 11 23 12
  20780256.623     -285745.731 4   -222655.661 3
  21529862.486    -5072971.395 4  -3952961.157 2
  22966097.998     8387833.248 3   6535973.428 2
  24057273.297     -845504.669 2   -658829.873 1
 91  7 30  5 18 30.0010000  0  4 21 11 23 12
  20781578.713     -278794.224 4   -217238.901 4
  21529422.688    -5075293.146 4  -3954770.322 2
  22973441.119     8426413.185 3   6566035.724 1
  24058661.339     -838149.657 2   -653098.687 1
 91  7 30  5 18 45.0010000  0  4 21 11 23 12
  20782915.784     -271775.058 4   -211769.417 3
  21529013.777    -5077438.455 4  -3956441.976 2
  22980788.132     8465020.359 3   6596119.225 2
  24060099.743     -830631.749 2   -647240.537 1
 91  7 30  5 19  0.0010000  0  4 21 11 23 12
  20784262.452     -264700.596 4   -206256.834 3
  21528638.432    -5079419.720 4  -3957985.815 2
  22988139.342     8503641.859 3   6626213.884 1
  24061557.630     -822963.353 2   -641265.121 1
 91  7 30  5 19 15.0010000  0  4 21 11 23 12
  20785621.117     -257564.519 4   -200696.244 3
  21528294.575    -5081230.442 4  -3959396.768 2
  22995490.551     8542284.507 3   6656325.024 1
  24063041.300     -815138.016 2   -635167.470 1
 91  7 30  5 19 30.0010000  0  4 21 11 23 12
  20786989.668     -250361.946 4   -195083.835 4
  21527979.494    -5082865.655 4  -3960670.953 2
  23002852.554     8580952.826 3   6686456.181 1
  24064561.851     -807150.885 2   -628943.706 1
 91  7 30  5 19 45.0010000  0  4 21 11 23 12
  20788376.506     -243097.967 4   -189423.589 4
  21527704.880    -5084330.288 4  -3961812.227 2
  23010209.461     8619641.980 3   6716603.575 1
  24066109.677     -799006.912 2   -622597.744 1
 91  7 30  5 20  0.0010000  0  4 21 11 23 12
  20789764.244     -235773.767 4   -183716.406 3
  21527460.245    -5085625.339 4  -3962821.346 2
  23017579.857     8658350.575 3   6746766.098 1
  24067691.984     -790707.189 2   -616130.378 1
 91  7 30  5 20 15.0010000  0  4 21 11 23 12
  20791174.169     -228382.895 4   -177957.273 3
  21527244.395    -5086744.215 4  -3963693.196 2
  23024948.456     8697085.093 3   6776948.838 1
  24069313.563     -782245.272 2   -609536.699 1
 91  7 30  5 20 30.0010000  0  4 21 11 23 12
  20792591.589     -220922.357 4   -172143.863 3
  21527065.425    -5087683.838 4  -3964425.362 2
  23032326.652     8735848.454 3   6807154.045 1
  24070945.027     -773618.140 2   -602814.249 1
 91  7 30  5 20 45.0010000  0  4 21 11 23 12
  20794023.694     -213397.084 4   -166279.999 3
  21526918.826    -5088448.997 4  -3965021.581 2
  23039706.340     8774635.822 3   6837377.958 2
  24072616.976     -764830.604 2   -595966.796 1
 91  7 30  5 21  0.0010000  0  4 21 11 23 12
  20795468.694     -205807.294 4   -160365.865 3
  21526806.700    -5089039.768 4  -3965481.918 2
  23047094.126     8813446.867 3   6867620.331 1
  24074313.199     -755882.831 2   -588994.446 1
 91  7 30  5 21 15.0010000  0  4 21 11 23 12
  20796925.691     -198143.037 4   -154393.707 3
  21526731.751    -5089446.148 4  -3965798.567 2
  23054485.811     8852291.410 3   6897888.810 1
  24076057.095     -746764.856 2   -581889.546 1
 91  7 30  5 21 30.0010000  0  4 21 11 23 12
  20798396.474     -190411.393 4   -148369.042 3
  21526686.188    -5089675.193 4  -3965977.041 2
  23061878.692     8891162.441 3   6928177.937 1
  24077830.665     -737483.779 2   -574657.518 1
 91  7 30  5 21 45.0010000  0  4 21 11 23 12
  20799880.746     -182614.378 4   -142293.440 3
  21526676.888    -5089728.680 4  -3966018.734 2
  23069284.765     8930058.083 3   6958486.220 2
  24079615.029     -728041.448 2   -567299.864 1
 91  7 30  5 22  0.0010000  0  4 21 11 23 12
  20801377.006     -174750.168 4   -136165.471 3
  21526704.476    -5089604.640 4  -3965922.053 2
  23076693.534     8968979.916 3   6988814.909 2
  24081442.564     -718435.938 2   -559814.968 1
 91  7 30  5 22 15.0010000  0  4 21 11 23 12
  20802887.959     -166817.314 4   -129984.018 3
  21526756.940    -5089301.485 4  -3965685.812 2
  23084101.413     9007929.484 3   7019165.216 2
  24083305.174     -708665.789 2   -552201.883 1
 91  7 30  5 22 30.0010000  0  4 21 11 23 12
  20804409.103     -158817.051 4   -123750.034 3
  21526850.770    -5088820.466 4  -3965310.986 2
  23091518.271     9046905.486 3   7049536.116 1
  24085193.863     -698732.180 2   -544461.377 1
 91  7 30  5 22 45.0010000  0  4 21 11 23 12
  20805944.644     -150746.863 4   -117461.560 3
  21526975.784    -5088158.957 4  -3964795.521 2
  23098937.536     9085910.572 3   7079929.685 2
  24087116.738     -688632.633 2   -536591.588 1
 91  7 30  5 23  0.0010000  0  4 21 11 23 12
  20807495.768     -142612.782 4   -111123.309 4
  21527134.371    -5087322.900 4  -3964144.031 2
  23106365.500     9124938.419 3   7110340.991 1
  24089061.486     -678373.135 2   -528597.169 1
 91  7 30  5 23 15.0010000  0  4 21 11 23 12
  20809055.294     -134407.613 4   -104729.656 4
  21527328.644    -5086305.073 4  -3963350.917 2
  23113800.951     9163996.197 3   7140775.618 2
  24091055.705     -667946.596 2   -520472.546 1
 91  7 30  5 23 30.0010000  0  4 21 11 23 12
  20810628.605     -126137.149 4    -98285.120 4
  21527554.084    -5085111.062 4  -3962420.512 2
  23121238.199     9203078.067 3   7171229.012 2
  24093070.316     -657358.600 2   -512222.192 1
 91  7 30  5 23 45.0010000  0  4 21 11 23 12
  20812215.999     -117799.657 4    -91788.358 4
  21527815.200    -5083738.956 4  -3961351.328 2
  23128674.251     9242185.941 3   7201702.654 2
  24095117.296     -646607.340 2   -503844.614 1
 91  7 30  5 24  0.0010000  0  4 21 11 23 12
  20813814.797     -109393.590 4    -85238.169 4
  21528105.999    -5082187.178 4  -3960142.143 2
  23136124.395     9281321.426 3   7232197.845 2
  24097190.059     -635691.305 2   -495338.562 1
 91  7 30  5 24 15.0010000  0  4 21 11 23 12
  20815427.084     -100922.892 4    -78637.608 3
  21528438.173    -5080459.611 4  -3958795.980 2
  23143574.835     9320480.244 3   7262711.194 2
  24099292.810     -624614.532 2   -486707.330 1
 91  7 30  5 24 30.0010000  0  4 21 11 23 12
  20817051.053      -92389.976 4    -71988.564 3
  21528799.419    -5078558.564 4  -3957314.639 2
  23151035.475     9359660.149 3   7293240.979 2
  24101431.823     -613379.304 2   -477952.610 1
 91  7 30  5 24 45.0010000  0  4 21 11 23 12
  20818687.919      -83786.731 4    -65284.729 3
  21529199.945    -5076475.850 4  -3955691.737 2
  23158492.512     9398869.213 3   7323793.483 2
  24103600.222     -601977.551 2   -469068.070 1
 91  7 30  5 25  0.0010000  0  4 21 11 23 12
  20820338.282      -75117.368 4    -58529.369 4
  21529631.349    -5074215.661 4  -3953930.542 2
  23165954.643     9438103.069 3   7354365.310 2
  24105815.387     -590413.424 2   -460057.092 1
 91  7 30  5 25 15.0010000  0  4 21 11 23 12
  20821999.429      -66384.669 4    -51724.657 3
  21530093.928    -5071780.555 4  -3952033.055 2
  23173427.272     9477359.207 3   7384954.519 2
  24108033.851     -578689.631 2   -450921.637 1
 91  7 30  5 25 30.0010000  0  4 21 11 23 12
  20823672.268      -57593.659 4    -44874.504 4
  21530588.284    -5069175.446 4  -3950003.097 2
  23180903.791     9516632.373 3   7415556.973 2
  24110307.484     -566811.049 2   -441665.616 1
 91  7 30  5 25 45.0010000  0  4 21 11 23 12
  20825353.806      -48741.035 4    -37976.347 3
  21531118.020    -5066397.107 4  -3947838.157 2
  23188382.117     9555925.969 3   7446175.346 2
  24112586.499     -554774.493 2   -432286.511 1
 91  7 30  5 26  0.0010000  0  4 21 11 23 12
  20827051.529      -39822.802 4    -31027.057 3
  21531680.127    -5063441.474 4  -3945535.051 2
  23195867.039     9595243.896 3   7476812.677 1
  24114899.404     -542575.974 2   -422781.169 1
 91  7 30  5 26 15.0010000  0  4 21 11 23 12
  20828764.843      -30836.085 4    -24024.409 3
  21532274.917    -5060305.697 4  -3943091.579 2
  23203352.554     9634588.925 3   7507471.133 2
  24117243.779     -530212.587 2   -413147.329 1
 91  7 30  5 26 30.0010000  0  4 21 11 23 12
  20830486.857      -21786.198 4    -16972.536 4
  21532905.376    -5056994.765 4  -3940511.629 2
  23210837.467     9673955.952 3   7538146.717 2
  24119651.115     -517689.632 2   -403389.185 1
 91  7 30  5 26 45.0010000  0  4 21 11 23 12
  20832220.554      -12664.619 4     -9864.800 4
  21533572.420    -5053500.214 4  -3937788.589 2
  23218341.279     9713353.382 3   7568846.010 2
  24122070.134     -504998.665 2   -393500.124 1
 91  7 30  5 27  0.0010000  0  4 21 11 23 12
  20833971.639       -3479.283 4     -2707.386 4
  21534267.034    -5049829.936 4  -3934928.635 2
  23225842.386     9752773.068 3   7599562.643 1
  24124505.949     -492147.648 2   -383486.282 1
 91  7 30  5 27 15.0010000  0  4 21 11 23 12
  20835728.728        5764.731 4      4495.754 4
  21535000.327    -5045988.890 4  -3931935.603 2
  23233339.890     9792210.032 3   7630292.739 1
  24126973.244     -479141.617 2   -373351.691 1
 91  7 30  5 27 30.0010000  0  4 21 11 23 12
  20837498.704       15071.797 4     11748.023 4
  21535762.099    -5041972.637 4  -3928806.045 2
  23240847.296     9831668.586 3   7661039.652 2
  24129477.115     -465976.191 2   -363092.893 1
 91  7 30  5 27 45.0010000  0  4 21 11 23 12
  20839281.863       24450.789 4     19056.337 3
  21536564.347    -5037772.326 4  -3925533.076 2
  23248366.691     9871157.617 3   7691810.316 2
  24132037.036     -452642.508 2   -352703.030 1
 91  7 30  5 28  0.0010000  0  4 21 11 23 12
  20841081.216       33899.312 4     26418.839 3
  21537396.268    -5033390.178 4  -3922118.405 2
  23255894.776     9910674.840 3   7722602.945 1
  24134593.972     -439142.944 2   -342183.884 1
 91  7 30  5 28 15.0010000  0  4 21 11 23 12
  20842894.363       43409.292 4     33829.229 4
  21538263.867    -5028834.322 4  -3918568.379 2
  23263415.069     9950211.999 3   7753411.128 2
  24137198.862     -425485.683 2   -331541.826 1
 91  7 30  5 28 30.0010000  0  4 21 11 23 12
  20844715.608       52982.387 4     41288.792 4
  21539161.751    -5024103.004 4  -3914881.641 2
  23270939.263     9989770.844 3   7784236.186 2
  24139819.353     -411668.952 2   -320775.514 1
 91  7 30  5 28 45.0010000  0  5 21 11 23 12 15
  20846549.730       62615.407 4     48795.049 3
  21540094.404    -5019199.401 4  -3911060.647 2
  23278467.357    10029348.139 3   7815075.628 1
  24142475.808     -397695.922 2   -309887.442 1
  24459801.029           0.370 2         0.002 1
 91  7 30  5 29  0.0010000  0  5 21 11 23 12 15
  20848394.061       72313.522 4     56352.036 4
  21541062.132    -5014118.303 4  -3907101.346 2
  23286002.640    10068948.902 3   7845933.375 1
  24145177.844     -383561.530 2   -298873.604 1
  24451023.107      -46119.457 2    -35937.462 1
 91  7 30  5 29 15.0010000  0  5 21 11 23 12 15
  20850250.075       82072.523 4     63956.462 4
  21542063.137    -5008863.766 4  -3903006.902 2
  23293548.114    10108569.027 3   7876806.191 2
  24147901.753     -369269.881 2   -287737.273 1
  24442249.984      -92228.207 2    -71866.266 1
 91  7 30  5 29 30.0010000  0  5 21 11 23 12 15
  20852121.977       91898.164 4     71612.817 3
  21543097.726    -5003430.064 4  -3898772.848 2
  23301086.390    10148214.273 3   7907698.586 2
  24150650.249     -354815.266 2   -276473.909 1
  24433474.156     -138319.831 2   -107781.713 1
 91  7 30  5 29 45.0010000  0  5 21 11 23 12 15
  20854002.875      101793.620 4     79323.573 4
  21544167.982    -4997813.929 4  -3894396.637 2
  23308640.563    10187887.885 3   7938613.059 1
  24153436.220     -340194.603 2   -265081.154 1
  24424710.325     -184391.186 2   -143681.458 1
 91  7 30  5 30  0.0010000  0  5 21 11 23 12 15
  20855897.262      111747.550 4     87079.891 3
  21545267.320    -4992026.703 4  -3889887.099 2
  23316195.635    10227578.337 3   7969540.703 1
  24156230.288     -325419.183 2   -253567.834 1
  24415950.089     -230453.388 2   -179573.986 1
 91  7 30  5 30 15.0010000  0  5 21 11 23 12 15
  20857801.840      121759.595 4     94881.488 3
  21546398.443    -4986068.855 4  -3885244.627 2
  23323747.705    10267285.298 3   8000481.182 1
  24159076.820     -310489.557 2   -241934.372 1
  24407181.163     -276506.277 2   -215459.299 1
 91  7 30  5 30 30.0010000  0  5 21 11 23 12 15
  20859717.516      131834.569 4    102732.129 3
  21547570.025    -4979935.462 4  -3880465.361 2
  23331311.170    10307013.504 3   8031438.229 1
  24161941.640     -295400.946 2   -230177.018 1
  24398419.722     -322544.954 2   -251333.565 1
 91  7 30  5 30 45.0010000  0  5 21 11 23 12 15
  20861651.183      141975.279 4    110633.989 4
  21548768.296    -4973623.600 4  -3875547.030 2
  23338873.432    10346765.790 3   8062414.046 1
  24164861.314     -280150.396 2   -218293.464 1
  24389661.589     -368566.163 2   -287194.206 1
 91  7 30  5 31  0.0010000  0  5 21 11 23 12 15
  20863590.836      152188.022 5    118591.977 4
  21550010.638    -4967126.960 4  -3870484.711 2
  23346449.793    10386548.432 3   8093413.507 1
  24167790.586     -264731.727 2   -206278.899 1
  24380910.950     -414563.500 2   -323036.199 1
 91  7 30  5 31 15.0010000  0  5 21 11 23 12 15
  20865549.379      162467.692 5    126602.122 4
  21551277.559    -4960450.718 4  -3865282.438 2
  23354016.251    10426356.287 3   8124432.590 1
  24170741.741     -249149.991 2   -194137.296 1
  24372154.911     -460541.856 2   -358863.379 1
 91  7 30  5 31 30.0010000  0  5 21 11 23 12 15
  20867518.121      172811.250 5    134662.051 3
  21552581.361    -4953597.859 4  -3859942.547 2
  23361593.807    10466186.317 3   8155468.974 1
  24173748.064     -233408.324 2   -181871.067 1
  24363414.760     -506504.055 2   -394678.089 1
 91  7 30  5 31 45.0010000  0  5 21 11 23 12 15
  20869499.742      183226.819 4    142778.087 4
  21553919.932    -4946560.289 4  -3854458.726 2
  23369187.252    10506046.589 3   8186528.936 1
  24176766.969     -217498.718 2   -169473.892 1
  24354674.007     -552441.713 2   -430473.625 1
 91  7 30  5 32  0.0010000  0  5 21 11 23 12 15
  20871491.867      193707.151 4    150944.585 4
  21555295.681    -4939345.215 4  -3848836.580 2
  23376786.691    10545929.776 3   8217606.721 2
  24179841.340     -201428.439 2   -156951.642 1
  24345937.460     -598361.740 2   -466255.406 1
 91  7 30  5 32 15.0010000  0  5 21 11 23 12 15
  20873497.779      204254.594 4    159163.387 3
  21556700.511    -4931950.302 4  -3843074.310 2
  23384359.143    10585838.287 3   8248704.261 1
  24182919.017     -185195.050 2   -144302.221 1
  24337199.708     -644261.256 2   -502021.197 1
 91  7 30  5 32 30.0010000  0  5 21 11 23 12 15
  20875518.976      214869.080 4    167434.427 4
  21558141.907    -4924375.583 4  -3837171.925 2
  23391956.785    10625772.001 3   8279821.419 1
  24186036.857     -168798.751 2   -131525.883 1
  24328471.851     -690140.124 2   -537770.902 1
 91  7 30  5 32 45.0010000  0  5 21 11 23 12 15
  20877552.468      225551.710 4    175758.558 4
  21559616.590    -4916619.852 4  -3831128.500 2
  23399569.119    10665732.012 3   8310959.082 1
  24189176.282     -152238.573 2   -118621.843 1
  24319740.695     -735997.265 2   -573503.673 1
 91  7 30  5 33  0.0010000  0  5 21 11 23 12 15
  20879601.856      236308.988 5    184140.866 4
  21561126.645    -4908676.692 4  -3824939.019 2
  23407189.542    10705724.979 3   8342122.441 1
  24192376.870     -135507.898 2   -105584.973 1
  24311023.631     -781825.709 2   -609214.106 1
 91  7 30  5 33 15.0010000  0  5 21 11 23 12 15
  20881658.731      247125.487 4    192569.316 3
  21562672.071    -4900561.432 4  -3818615.448 2
  23414792.576    10745735.464 3   8373299.428 1
  24195599.637     -118622.160 2    -92427.174 1
  24302307.465     -827640.729 2   -644914.062 1
 91  7 30  5 33 30.0010000  0  5 21 11 23 12 15
  20883727.899      258009.854 4    201050.647 4
  21564255.574    -4892265.570 4  -3812151.144 2
  23422411.803    10785771.966 3   8404496.706 1
  24198829.297     -101572.925 2    -79142.039 1
  24293585.899     -873433.317 2   -680596.550 1
 91  7 30  5 33 45.0010000  0  5 21 11 23 12 15
  20885814.753      268962.828 4    209585.440 3
  21565863.664    -4883788.287 4  -3805545.466 2
  23430037.025    10825835.105 3   8435714.733 1
  24202109.031      -84359.453 2    -65728.991 1
  24284877.525     -919202.597 2   -716260.865 1
 91  7 30  5 34  0.0010000  0  5 21 11 23 12 15
  20887910.297      279982.058 4    218171.863 4
  21567512.221    -4875131.814 4  -3798800.166 2
  23437667.037    10865922.517 3   8466951.672 1
  24205408.247      -66984.105 2    -52189.748
  24276170.355     -964950.452 2   -751908.550 1
 91  7 30  5 34 15.0010000  0  5 21 11 23 12 15
  20890020.840      291066.765 4    226809.302 4
  21569190.757    -4866297.087 4  -3791915.957 2
  23445306.053    10906033.325 3   8498206.855 1
  24208752.128      -49447.782 2    -38525.115 1
  24267472.180    -1010677.516 2   -787539.950 1
 91  7 30  5 34 30.0010000  0  5 21 11 23 12 15
  20892140.073      302221.085 4    235500.988 3
  21570909.769    -4857279.818 4  -3784889.516 2
  23452930.978    10946171.841 3   8529483.633 2
  24212114.898      -31746.442 2    -24731.859 1
  24258775.201    -1056379.366 2   -823151.774 1
 91  7 30  5 34 45.0010000  0  5 21 11 23 12 15
  20894277.891      313444.914 4    244246.834 3
  21572658.159    -4848080.104 4  -3777720.913 2
  23460583.474    10986338.055 3   8560781.967 1
  24215513.049      -13880.154 2    -10810.082 1
  24250080.316    -1102055.787 2   -858743.724 1
 91  7 30  5 35  0.0010000  0  5 21 11 23 12 15
  20896428.307      324731.990 4    253041.971 4
  21574444.023    -4838704.419 4  -3770415.189 2
  23468227.882    11026525.544 3   8592096.874 1
  24218960.366        4144.679 2      3235.305 1
  24241395.029    -1147712.845 2   -894320.595 1
 91  7 30  5 35 15.0010000  0  5 21 11 23 12 15
  20898588.007      336098.599 4    261899.077 4
  21576265.861    -4829136.512 4  -3762959.681 2
  23475881.888    11066750.494 3   8623441.003 1
  24222411.870       22344.206 2     17416.744 1
  24232713.039    -1193333.948 2   -929869.476 1
 91  7 30  5 35 30.0010000  0  5 21 11 23 12 15
  20900764.206      347530.535 5    270807.084 4
  21578119.780    -4819390.456 4  -3755365.340 2
  23483549.374    11106998.868 3   8654803.366 1
  24225903.554       40704.285 2     31723.322 1
  24224033.153    -1238932.993 2   -965401.136 1
 91  7 30  5 35 45.0010000  0  5 21 11 23 12 15
  20902949.986      359024.638 5    279763.532 3
  21580007.274    -4809469.312 4  -3747634.593 2
  23491211.171    11147267.426 3   8686181.442 1
  24229434.213       59221.735 2     46152.546 1
  24215363.457    -1284512.718 2  -1000917.763 1
 91  7 30  5 36  0.0010000  0  5 21 11 23 12 15
  20905149.568      370576.916 5    288765.317 4
  21581927.741    -4799377.318 4  -3739770.703 2
  23498866.373    11187552.064 3   8717572.067 1
  24232990.951       77892.465 2     60701.123 1
  24206689.556    -1330076.884 2  -1036422.252 1
 91  7 30  5 36 15.0010000  0  5 21 11 23 12 15
  20907362.936      382200.939 5    297823.011 4
  21583883.291    -4789100.911 4  -3731763.106 2
  23506535.665    11227866.285 3   8748985.761 1
  24236572.268       96729.756 2     75379.575 1
  24198024.956    -1375611.807 2  -1071903.964 1
 91  7 30  5 36 30.0010000  0  5 21 11 23 12 15
  20909585.893      393882.811 5    306925.770 4
  21585869.710    -4778653.914 4  -3723622.592 2
  23514212.748    11268196.294 3   8780411.716 1
  24240179.071      115719.723 2     90176.911 1
  24189362.449    -1421131.029 2  -1107373.421 1
 91  7 30  5 36 45.0010000  0  5 21 11 23 12 15
  20911822.043      405629.624 5    316079.143 4
  21587894.808    -4768029.388 4  -3715343.743 2
  23521900.625    11308549.289 3   8811855.598 1
  24243829.046      134869.455 2    105098.711 1
  24180702.945    -1466627.174 2  -1142824.912 1
 91  7 30  5 37  0.0010000  0  5 21 11 23 12 15
  20914068.392      417445.893 5    325286.637 4
  21589951.691    -4757222.653 4  -3706922.906 2
  23529586.408    11348929.841 3   8843320.941 2
  24247497.003      154183.502 2    120148.675 1
  24172053.639    -1512095.406 2  -1178254.688 1
 91  7 30  5 37 15.0010000  0  5 21 11 23 12 15
  20916331.825      429327.826 5    334545.296 4
  21592037.647    -4746237.554 4  -3698363.097 2
  23537271.885    11389333.982 3   8874804.677 1
  24251194.643      173657.862 2    135323.451 1
  24163406.725    -1557539.067 2  -1213665.324 1
 91  7 30  5 37 30.0010000  0  5 21 11 23 12 15
  20918599.751      441266.144 5    343847.889 4
  21594164.968    -4735083.484 4  -3689671.614 2
  23544960.966    11429752.247 3   8906299.429 1
  24254946.248      193283.130 2    150615.926 1
  24154763.405    -1602967.265 2  -1249063.788 1
 91  7 30  5 37 45.0010000  0  5 21 11 23 12 15
  20920885.974      453260.986 5    353194.528 3
  21596314.782    -4723760.385 4  -3680848.419 2
  23552654.836    11470184.878 3   8937805.364 1
  24258705.051      213059.476 2    166026.078 1
  24146121.290    -1648379.822 2  -1284450.195 1
 91  7 30  5 38  0.0010000  0  5 21 11 23 12 15
  20923177.283      465320.264 5    362591.374 4
  21598507.463    -4712260.365 4  -3671887.370 2
  23560350.208    11510639.883 3   8969328.738 2
  24262502.821      232994.678 2    181560.002 1
  24137484.269    -1693768.284 2  -1319817.779 1
 91  7 30  5 38 15.0010000  0  5 21 11 23 12 15
  20925481.794      477436.689 4    372032.742 4
  21600727.427    -4700590.775 4  -3662794.194 2
  23568065.368    11551109.721 3   9000863.661 2
  24266323.075      253081.281 2    197211.887 1
  24128851.446    -1739139.818 2  -1355172.159 1
 91  7 30  5 38 30.0010000  0  5 21 11 23 12 15
  20927802.184      489611.869 5    381519.902 4
  21602980.067    -4688750.041 4  -3653567.648 2
  23575753.541    11591596.115 3   9032411.490 2
  24270166.110      273320.812 2    212982.968 1
  24120217.724    -1784492.539 2  -1390511.907 1
 91  7 30  5 38 45.0010000  0  5 21 11 23 12 15
  20930131.867      501854.266 5    391059.438 4
  21605265.688    -4676729.682 4  -3644201.130 2
  23583465.107    11632107.394 3   9063978.702 2
  24274057.718      293721.650 3    228879.774 1
  24111591.793    -1829817.718 2  -1425830.167 1
 91  7 30  5 39  0.0010000  0  5 21 11 23 12 15
  20932474.149      514160.322 5    400648.582 4
  21607588.181    -4664533.322 4  -3634697.475 2
  23591174.569    11672640.031 3   9095562.563 2
  24277963.417      314280.226 3    244899.459 1
  24102973.960    -1875118.658 2  -1461129.561 1
 91  7 30  5 39 15.0010000  0  5 21 11 23 12 15
  20934826.019      526524.822 5    410283.268 4
  21609940.348    -4652166.342 4  -3625060.868 2
  23598892.731    11713188.826 3   9127159.012 2
  24281913.483      334991.136 3    261037.799 1
  24094356.423    -1920400.349 2  -1496413.918 1
 91  7 30  5 39 30.0010000  0  5 21 11 23 12 15
  20937192.583      538953.149 4    419967.678 3
  21612327.294    -4639623.368 4  -3615287.140 2
  23606618.082    11753759.237 3   9158772.310 1
  24285875.538      355859.577 3    277298.989 1
  24085746.084    -1965657.199 2  -1531678.914 1
 91  7 30  5 39 45.0010000  0  5 21 11 23 12 15
  20939566.938      551441.247 5    429698.671 4
  21614747.526    -4626908.472 4  -3605379.428 2
  23614339.829    11794347.209 3   9190399.279 2
  24289888.259      376881.444 3    293679.648 1
  24077137.246    -2010892.651 2  -1566927.341 1
 91  7 30  5 40  0.0010000  0  5 21 11 23 12 15
  20941955.690      563993.380 5    439479.551 4
  21617201.323    -4614017.477 4  -3595334.498 2
  23622066.986    11834956.910 3   9222043.198 1
  24293911.773      398060.911 3    310183.140 1
  24068534.699    -2056102.239 2  -1602155.493 1
 91  7 30  5 40 15.0010000  0  5 21 11 23 12 15
  20944355.827      576602.082 5    449304.518 4
  21619685.405    -4600957.959 4  -3585158.240 2
  23629799.230    11875580.915 3   9253698.269 1
  24297964.368      419390.350 3    326803.505 1
  24059931.558    -2101293.268 2  -1637369.236 1
 91  7 30  5 40 30.0010000  0  5 21 11 23 12 15
  20946767.954      589273.555 5    459178.402 3
  21622203.663    -4587723.717 4  -3574845.843 2
  23637538.672    11916225.380 3   9285369.264 2
  24302058.337      440875.896 3    343545.506 1
  24051338.905    -2146459.057 2  -1672563.288 1
 91  7 30  5 40 45.0010000  0  5 21 11 23 12 15
  20949186.083      602002.984 5    469097.444 3
  21624756.988    -4574319.683 4  -3564401.141 2
  23645262.226    11956885.472 3   9317052.431 1
  24306173.291      462512.622 3    360405.264 1
  24042746.549    -2191604.377 2  -1707741.423 1
 91  7 30  5 41  0.0010000  0  5 21 11 23 12 15
  20951622.796      614788.480 5    479060.170 3
  21627336.104    -4560747.794 4  -3553825.646 2
  23653015.157    11997559.047 3   9348746.133 1
  24310321.818      484298.454 3    377381.261 1
  24034163.197    -2236730.934 2  -1742904.889 1
 91  7 30  5 41 15.0010000  0  5 21 11 23 12 15
  20954066.402      627636.692 4    489071.770 4
  21629955.390    -4547001.415 4  -3543114.190 2
  23660753.997    12038253.059 3   9380455.752 1
  24314496.128      506240.128 3    394478.604 1
  24025580.735    -2281831.639 2  -1778048.238 1
 91  7 30  5 41 30.0010000  0  5 21 11 23 12 15
  20956523.498      640551.057 5    499134.912 3
  21632604.656    -4533077.155 4  -3532264.117 2
  23668500.341    12078970.873 3   9412183.900 1
  24318698.019      528340.998 3    411700.066 1
  24017002.173    -2326902.572 2  -1813168.421 1
 91  7 30  5 41 45.0010000  0  5 21 11 23 12 15
  20958994.693      653523.433 5    509243.264 4
  21635285.106    -4518983.414 4  -3521281.980 2
  23676253.874    12119703.947 3   9443923.951 1
  24322944.276      550592.598 3    429038.953 1
  24008424.509    -2371951.846 2  -1848271.691 1
 91  7 30  5 42  0.0010000  0  5 21 11 23 12 15
  20961472.179      666554.620 4    519397.431 4
  21637997.027    -4504719.311 4  -3510167.093 2
  23684009.204    12160453.486 3   9475676.831 1
  24327205.227      572995.663 3    446495.917 1
  23999861.539    -2416978.094 2  -1883357.030 1
 91  7 30  5 42 15.0010000  0  5 21 11 23 12 15
  20963960.754      679635.508 5    529590.340 4
  21640746.422    -4490294.017 4  -3498926.606 2
  23691766.035    12201210.338 3   9507435.390 1
  24331490.459      595540.979 3    464063.659 1
  23991298.866    -2461990.442 2  -1918431.552 1
 91  7 30  5 42 30.0010000  0  5 21 11 23 12 15
  20966461.318      692775.228 4    539829.093 3
  21643525.797    -4475698.502 4  -3487553.471 2
  23699524.359    12241983.562 3   9539206.735 1
  24335813.768      618237.587 3    481749.401 1
  23982734.098    -2506979.384 2  -1953487.847 1
 91  7 30  5 42 45.0010000  0  5 21 11 23 12 15
  20968973.286      705975.838 4    550115.284 3
  21646332.158    -4460930.655 4  -3476046.060 2
  23707282.088    12282775.285 3   9570992.475 1
  24340164.352      641087.445 3    499554.484 1
  23974175.621    -2551942.407 2  -1988523.909 1
 91  7 30  5 43  0.0010000  0  5 21 11 23 12 15
  20971497.835      719240.695 4    560451.536 4
  21649175.086    -4445987.340 4  -3464401.917 2
  23715052.714    12323588.725 3   9602795.128 1
  24344535.631      664093.803 3    517481.484 1
  23965630.337    -2596875.993 2  -2023537.061 1
 91  7 30  5 43 15.0010000  0  5 21 11 23 12 15
  20974036.475      732572.470 5    570839.935 4
  21652051.894    -4430866.013 4  -3452619.067 2
  23722813.140    12364426.658 3   9634616.868 1
  24348938.679      687259.243 3    535532.493 1
  23957082.060    -2641777.284 2  -2058524.991 1
 91  7 30  5 43 30.0010000  0  5 21 11 23 12 15
  20976584.111      745962.756 4    581273.932 3
  21654961.683    -4415575.145 4  -3440704.102 2
  23730592.150    12405280.668 3   9666451.176 1
  24353382.804      710575.138 3    553700.715 1
  23948543.668    -2686654.129 2  -2093493.974 1
 91  7 30  5 43 45.0010000  0  5 21 11 23 12 15
  20979139.547      759409.181 4    591751.673 4
  21657905.945    -4400117.187 4  -3428658.941 2
  23738373.569    12446148.192 3   9698295.979 1
  24357844.319      734038.954 3    571984.235 1
  23940007.380    -2731508.730 2  -2128445.544 1
 91  7 30  5 44  0.0010000  0  5 21 11 23 12 15
  20981713.262      772913.798 4    602274.750 4
  21660877.185    -4384490.220 4  -3416482.084 2
  23746154.080    12487031.398 3   9730153.024 1
  24362337.602      757652.621 3    590384.463 1
  23931475.584    -2776338.732 2  -2163377.998 1
 91  7 30  5 44 15.0010000  0  5 21 11 23 12 15
  20984296.872      786490.021 4    612853.635 4
  21663889.503    -4368680.980 4  -3404163.207 2
  23753940.891    12527943.623 3   9762032.675 1
  24366864.171      781429.359 3    608911.808 1
  23922951.886    -2821130.511 2  -2198280.599 1
 91  7 30  5 44 30.0010000  0  5 21 11 23 12 15
  20986890.977      800126.680 4    623479.612 4
  21666928.502    -4352700.598 4  -3391710.962 2
  23761727.099    12568873.512 3   9793926.083 1
  24371414.716      805357.832 3    627557.389 1
  23914435.979    -2865894.847 2  -2233161.829 1
 91  7 30  5 44 45.0010000  0  5 21 11 23 12 15
  20989496.775      813826.002 5    634154.405 4
  21670002.270    -4336546.920 4  -3379123.683 2
  23769520.506    12609823.653 3   9825835.256 1
  24375990.155      829440.207 3    646322.895 1
  23905921.573    -2910629.298 3  -2268019.790 1
 91  7 30  5 45  0.0010000  0  5 21 11 23 12 15
  20992117.257      827591.343 5    644880.645 3
  21673109.020    -4320216.850 4  -3366398.962 2
  23777313.608    12650797.278 2   9857762.729 1
  24380608.460      853679.755 3    665210.848 1
  23897413.466    -2955330.280 3  -2302851.685 1
 91  7 30  5 45 15.0010000  0  5 21 11 23 12 15
  20994747.336      841411.850 5    655649.881 3
  21676248.742    -4303721.436 4  -3353545.390 2
  23785115.705    12691783.447 2   9889699.986 1
  24385251.343      878065.336 3    684212.624 1
  23888913.753    -3000008.466 3  -2337665.817 1
 91  7 30  5 45 30.0010000  0  5 21 11 23 12 15
  20997386.411      855292.345 5    666465.853 4
  21679419.647    -4287055.664 4  -3340559.068 2
  23792917.505    12732787.167 2   9921650.930 1
  24389924.808      902601.790 3    703331.931 1
  23880415.235    -3044658.462 3  -2372458.005 1
 91  7 30  5 45 45.0010000  0  5 21 11 23 12 15
  21000039.874      869238.813 5    677333.231 4
  21682626.229    -4270213.800 4  -3327435.544 2
  23800721.399    12773813.996 2   9953619.865 1
  24394620.758      927294.736 3    722573.206 1
  23871929.011    -3089274.039 3  -2407223.311 1
 91  7 30  5 46  0.0010000  0  5 21 11 23 12 15
  21002707.427      883253.426 5    688253.711 4
  21685864.291    -4253193.829 4  -3314173.232 2
  23808538.190    12814866.190 3   9985608.574 1
  24399340.684      952146.293 2    741938.044 1
  23863443.982    -3133852.874 2  -2441960.040 1
 91  7 30  5 46 15.0010000  0  5 21 11 23 12 15
  21005387.275      897328.228 5    699221.092 4
  21689137.123    -4236003.796 4  -3300778.387 2
  23816347.188    12855935.927 3  10017610.951 1
  24404101.993      977148.419 3    761420.222 1
  23854965.855    -3178402.537 2  -2476674.029 1
 91  7 30  5 46 30.0010000  0  5 21 11 23 12 15
  21008077.313      911471.129 5    710241.547 4
  21692441.139    -4218635.891 4  -3287244.959 2
  23824167.276    12897031.154 3  10049633.194 1
  24408898.072     1002308.863 3    781025.751 1
  23846496.715    -3222914.921 3  -2511358.964 1
 91  7 30  5 46 45.0010000  0  5 21 11 23 12 15
  21010780.840      925674.127 5    721308.821 4
  21695776.329    -4201098.321 4  -3273579.320 2
  23831994.258    12938143.774 3  10081668.982 1
  24413701.044     1027619.349 2    800748.179 1
  23838027.574    -3267397.540 3  -2546020.667 1
 91  7 30  5 47  0.0010000  0  5 21 11 23 12 15
  21013496.356      939944.760 5    732428.801 3
  21699144.797    -4183383.553 4  -3259775.606 2
  23839826.631    12979281.417 3  10113724.274 1
  24418557.082     1053087.463 3    820593.444 1
  23829573.729    -3311842.549 2  -2580653.102 1
 91  7 30  5 47 15.0010000  0  5 21 11 23 12 15
  21016228.371      954291.467 5    743608.053 3
  21702554.037    -4165483.256 4  -3245827.329 2
  23847658.707    13020452.373 3  10145805.516 1
  24423425.413     1078721.419 2    840567.951 1
  23821124.979    -3356241.242 2  -2615249.433 1
 91  7 30  5 47 30.0010000  0  5 21 11 23 12 15
  21018968.770      968701.439 5    754836.600 4
  21705993.554    -4147410.385 4  -3231744.580 2
  23855503.077    13061643.827 3  10177902.746 1
  24428336.315     1104508.191 2    860661.525 1
  23812682.224    -3400606.362 3  -2649819.611 1
 91  7 30  5 47 45.0010000  0  5 21 11 23 12 15
  21021724.762      983178.389 5    766117.343 3
  21709466.051    -4129161.496 4  -3217524.674 2
  23863334.561    13102859.401 3  10210018.761 1
  24433268.496     1130451.165 2    880876.801 1
  23804248.158    -3444933.914 3  -2684360.542 1
 91  7 30  5 48  0.0010000  0  5 21 11 23 12 15
  21024491.546      997719.791 5    777448.303 3
  21712972.419    -4110739.294 4  -3203169.723 2
  23871184.925    13144096.637 3  10242151.634 1
  24438245.054     1156547.771 2    901211.828 1
  23795818.595    -3489226.024 2  -2718873.795 1
 91  7 30  5 48 15.0010000  0  5 21 11 23 12 15
  21027269.726     1012323.830 5    788828.086 4
  21716509.369    -4092145.588 4  -3188681.129 2
  23879041.886    13185353.623 3  10274299.925 1
  24443243.495     1182796.043 3    921665.001 1
  23787397.731    -3533484.112 2  -2753360.578 1
 91  7 30  5 48 30.0010000  0  5 21 11 23 12 15
  21030062.895     1026995.156 5    800260.286 3
  21720083.200    -4073375.905 4  -3174055.411 2
  23886894.649    13226635.104 3  10306467.320 1
  24448265.022     1209200.474 2    942239.862 1
  23778981.656    -3577703.227 2  -2787816.977 1
 91  7 30  5 48 45.0010000  0  5 21 11 23 12 15
  21032863.855     1041731.114 5    811742.859 3
  21723689.104    -4054432.990 4  -3159294.706 2
  23894750.406    13267938.587 3  10338651.820 1
  24453314.120     1235758.309 2    962934.250 1
  23770572.475    -3621885.771 2  -2822244.863 1
 91  7 30  5 49  0.0010000  0  5 21 11 23 12 15
  21035681.298     1056529.728 4    823274.260 3
  21727324.683    -4035319.027 4  -3144400.706 2
  23902619.058    13309261.874 2  10370851.750 1
  24458397.700     1262467.418 2    983746.550 1
  23762170.492    -3666033.726 2  -2856645.834 1
 91  7 30  5 49 15.0010000  0  5 21 11 23 12 15
  21038513.136     1071400.688 5    834862.022 3
  21730992.945    -4016024.360 4  -3129365.917 2
  23910488.914    13350614.695 2  10403074.717 2
  24463518.754     1289337.340 2   1004684.159 1
  23753780.200    -3710136.951 2  -2891011.910 1
 91  7 30  5 49 30.0010000  0  5 21 11 23 12 15
  21041355.471     1086343.521 5    846505.783 3
  21734700.776    -3996549.786 4  -3114190.931 2
  23918367.155    13391996.407 2  10435320.184 1
  24468662.895     1316367.243 2   1025746.394 1
  23745390.205    -3754195.556 2  -2925343.220 1
 91  7 30  5 49 45.0010000  0  5 21 11 23 12 15
  21044212.796     1101353.228 5    858201.671 3
  21738440.995    -3976900.275 4  -3098879.621 2
  23926238.207    13433402.116 2  10467584.356 1
  24473838.516     1343552.068 2   1046929.352 1
  23737014.310    -3798213.921 2  -2959643.217 1
 91  7 30  5 50  0.0010000  0  5 21 11 23 12 15
  21047081.507     1116432.440 5    869951.718 3
  21742214.482    -3957073.341 4  -3083430.069 2
  23934120.051    13474834.345 2  10499869.184 1
  24479045.312     1370894.317 2   1068235.006 1
  23728652.498    -3842189.208 2  -2993909.596 1
 91  7 30  5 50 15.0010000  0  5 21 11 23 12 15
  21049964.310     1131578.352 5    881753.731 4
  21746021.238    -3937072.050 4  -3067844.630 2
  23942012.087    13516290.486 2  10532172.643 1
  24484277.586     1398390.886 2   1089660.899 1
  23720286.785    -3886123.984 3  -3028144.448 1
 91  7 30  5 50 30.0010000  0  5 21 11 23 12 15
  21052858.812     1146795.581 5    893611.312 4
  21749860.086    -3916891.854 4  -3052119.834 2
  23949910.422    13557774.820 2  10564498.083 1
  24489534.150     1426046.117 2   1111210.435 1
  23711940.564    -3930013.386 3  -3062343.969 1
 91  7 30  5 50 45.0010000  0  5 21 11 23 12 15
  21055768.898     1162078.026 5    905519.717 3
  21753731.006    -3896539.112 4  -3036260.559 2
  23957808.757    13599281.403 2  10596840.849 1
  24494827.883     1453853.748 2   1132878.678 1
  23703595.843    -3973863.314 3  -3096512.685 1
 91  7 30  5 51  0.0010000  0  5 21 11 23 12 15
  21058687.970     1177428.868 5    917481.423 3
  21757640.300    -3876010.738 4  -3020264.428 2
  23965707.982    13640813.412 2  10629203.448 1
  24500140.802     1481816.897 2   1154668.124 1
  23695258.618    -4017670.285 3  -3130647.909 1
 91  7 30  5 51 15.0010000  0  5 21 11 23 12 15
  21061625.042     1192853.334 5    929500.486 4
  21761578.369    -3855301.741 4  -3004127.561 2
  23973617.406    13682376.233 2  10661590.018 1
  24505489.399     1509940.703 2   1176582.750 2
  23686932.177    -4061428.610 3  -3164745.271 1
 91  7 30  5 51 30.0010000  0  5 21 11 23 12 15
  21064573.798     1208346.965 5    941573.452 3
  21765554.524    -3834416.728 4  -2987853.525 2
  23981528.637    13723965.243 2  10693997.025 1
  24510881.769     1538220.304 2   1198618.798 1
  23678615.333    -4105142.757 3  -3198808.172 1
 91  7 30  5 51 45.0010000  0  5 21 11 23 12 15
  21067532.150     1223904.679 5    953696.349 3
  21769560.047    -3813360.821 4  -2971446.345 2
  23989452.746    13765575.375 2  10726420.493 1
  24516282.829     1566650.599 2   1220772.285 2
  23670301.194    -4148817.228 3  -3232840.176 1
 91  7 30  5 52  0.0010000  0  5 21 11 23 12 15
  21070503.094     1239525.399 5    965868.351 3
  21773600.051    -3792135.251 4  -2954906.937 2
  23997369.962    13807205.405 2  10758859.466 1
  24521721.670     1595230.255 2   1243042.134 1
  23661996.339    -4192452.914 3  -3266841.942 1
 91  7 30  5 52 15.0010000  0  5 21 11 23 12 15
  21073489.323     1255208.306 5    978088.804 4
  21777671.536    -3770741.178 4  -2938236.245 2
  24005295.877    13848854.674 2  10791313.383 1
  24527196.178     1623958.131 2   1265427.488 1
  23653700.183    -4236050.488 3  -3300814.029 1
 91  7 30  5 52 30.0010000  0  5 21 11 23 12 15
  21076489.051     1270965.713 5    990367.309 3
  21781775.688    -3749166.275 4  -2921424.650 2
  24013227.185    13890535.480 2  10823791.954 1
  24532664.387     1652846.461 2   1287937.859 1
  23645413.624    -4279597.301 3  -3334746.555 1
 91  7 30  5 52 45.0010000  0  5 21 11 23 12 15
  21079499.868     1286794.962 5   1002701.789 3
  21785914.923    -3727413.493 4  -2904474.446 2
  24021162.697    13932245.183 2  10856292.976 1
  24538202.458     1681892.488 2   1310571.093 1
  23637138.748    -4323095.583 3  -3368641.243 1
 91  7 30  5 53  0.0010000  0  5 21 11 23 12 15
  21082525.369     1302685.703 5   1015084.183 4
  21790088.334    -3705493.499 4  -2887393.935 2
  24029106.298    13973973.217 2  10888808.373 1
  24543777.698     1711085.497 2   1333318.894 1
  23628868.375    -4366555.257 3  -3402505.873 1
 91  7 30  5 53 15.0010000  0  5 21 11 23 12 15
  21085559.272     1318637.364 5   1027514.050 4
  21794291.123    -3683406.902 4  -2870183.618 2
  24037056.190    14015719.079 2  10921337.580 1
  24549359.534     1740424.758 2   1356180.596 1
  23620606.098    -4409976.611 3  -3436340.630 1
 91  7 30  5 53 30.0010000  0  5 21 11 23 12 15
  21088609.658     1334659.732 5   1039999.015 3
  21798528.996    -3661144.030 4  -2852835.946 2
  24045001.588    14057492.438 2  10953888.258 1
  24554962.354     1769919.899 2   1379163.809 1
  23612352.206    -4453349.470 3  -3470137.606 1
 91  7 30  5 53 45.0010000  0  5 21 11 23 12 15
  21091670.539     1350747.828 5   1052535.208 3
  21802794.143    -3638710.211 4  -2835355.041 2
  24052957.788    14099288.422 2  10986456.513 1
  24560613.441     1799565.647 2   1402264.363 1
  23604107.013    -4496678.605 3  -3503900.507 1
 91  7 30  5 54  0.0010000  0  5 21 11 23 12 15
  21094746.114     1366899.155 5   1065120.664 4
  21807093.764    -3616108.027 4  -2817742.966 2
  24060910.376    14141104.479 2  11019040.438 1
  24566278.916     1829359.298 2   1425480.169 1
  23595868.416    -4539966.186 3  -3537631.017 1
 91  7 30  5 54 15.0010000  0  5 21 11 23 12 15
  21097830.379     1383115.654 5   1077756.898 4
  21811433.258    -3593335.751 4  -2799998.334 2
  24068871.968    14182942.544 2  11051641.487 1
  24571987.266     1859302.619 2   1448812.597 1
  23587634.321    -4583210.015 3  -3571327.467 1
 91  7 30  5 54 30.0010000  0  5 21 11 23 12 15
  21100927.531     1399399.144 5   1090445.340 3
  21815797.339    -3570391.653 4  -2782119.838 2
  24076832.958    14224804.506 2  11084261.170 1
  24577706.409     1889397.299 2   1472262.973 1
  23579415.208    -4626408.003 3  -3604988.166 1
 91  7 30  5 54 45.0010000  0  5 21 11 23 12 15
  21104040.877     1415752.982 5   1103188.594 4
  21820193.197    -3547272.651 4  -2764105.053 2
  24084809.531    14266693.721 3  11116902.097 1
  24583465.121     1919646.364 2   1495833.668 1
  23571206.294    -4669556.451 3  -3638610.274 1
 91  7 30  5 55  0.0010000  0  5 21 11 23 12 15
  21107164.117     1432170.885 5   1115981.763 4
  21824629.819    -3523985.137 4  -2745958.945 2
  24092786.113    14308603.812 3  11149559.336 1
  24589244.519     1950043.301 2   1519519.561 1
  23563003.069    -4712661.321 3  -3672198.421 1
 91  7 30  5 55 15.0010000  0  5 21 11 23 12 15
  21110301.142     1448650.584 5   1128823.094 4
  21829088.341    -3500531.743 4  -2727683.583 2
  24100767.484    14350532.564 3  11182231.040 1
  24595060.494     1980585.645 2   1543318.728 1
  23554812.146    -4755724.743 3  -3705754.281 1
 91  7 30  5 55 30.0010000  0  5 21 11 23 12 15
  21113448.961     1465197.617 5   1141716.896 3
  21833588.525    -3476907.116 4  -2709274.805 2
  24108746.762    14392485.350 3  11214921.535 1
  24600909.144     2011278.662 2   1567235.403 1
  23546622.715    -4798740.963 3  -3739273.339 1
 91  7 30  5 55 45.0010000  0  5 21 11 23 12 15
  21116608.776     1481805.726 5   1154658.282 4
  21838113.288    -3453117.743 4  -2690737.632 2
  24116734.434    14434455.971 3  11247625.896 1
  24606766.789     2042115.851 2   1591264.356 1
  23538446.477    -4841715.704 3  -3772760.113 1
 91  7 30  5 56  0.0010000  0  5 21 11 23 12 15
  21119782.674     1498476.117 5   1167648.206 4
  21842670.735    -3429162.602 4  -2672071.307 2
  24124730.795    14476445.438 3  11280344.942 1
  24612653.515     2073098.234 2   1615406.472 1
  23530277.428    -4884647.640 3  -3806213.514 1
 91  7 30  5 56 15.0010000  0  5 21 11 23 12 15
  21122966.179     1515209.512 5   1180687.218 4
  21847262.359    -3405041.010 4  -2653275.273 2
  24132721.468    14518454.655 3  11313079.369 1
  24618586.406     2104226.419 2   1639662.221 1
  23522113.779    -4927535.578 3  -3839632.618 1
 91  7 30  5 56 30.0010000  0  5 21 11 23 12 15
  21126162.858     1532011.019 5   1193779.301 4
  21851884.852    -3380748.091 3  -2634345.730 2
  24140716.032    14560488.844 3  11345833.241 1
  24624526.792     2135505.355 2   1664035.350 1
  23513961.221    -4970373.969 3  -3873013.162 1
 91  7 30  5 56 45.0010000  0  5 21 11 23 12 15
  21129371.237     1548879.678 5   1206923.712 4
  21856543.030    -3356285.141 3  -2615283.699 2
  24148720.491    14602547.076 3  11378605.871 1
  24630511.850     2166933.650 2   1688525.001 1
  23505820.363    -5013163.553 3  -3906355.619 2
 91  7 30  5 57  0.0010000  0  5 21 11 23 12 15
  21132594.607     1565810.562 5   1220116.612 4
  21861227.890    -3331657.301 3  -2596093.206 2
  24156732.444    14644624.150 3  11411393.185 1
  24636531.983     2198506.131 2   1713126.868 1
  23497686.991    -5055909.011 3  -3939663.686 1
 91  7 30  5 57 15.0010000  0  5 21 11 23 12 15
  21135828.472     1582806.800 5   1233360.441 3
  21865944.222    -3306861.588 3  -2576771.873 2
  24164743.194    14686723.320 3  11444197.759 1
  24642562.909     2230225.808 2   1737843.550 1
  23489564.412    -5098606.817 3  -3972934.669 1
 91  7 30  5 57 30.0010000  0  5 21 11 23 12 15
  21139075.818     1599863.881 5   1246651.674 4
  21870693.534    -3281902.600 3  -2557323.313 2
  24172747.059    14728840.035 2  11477015.942 1
  24648622.018     2262087.950 2   1762671.189 1
  23481446.632    -5141261.293 3  -4006171.865 1
 91  7 30  5 57 45.0010000  0  5 21 11 23 12 15
  21142332.465     1616973.355 5   1259983.730 4
  21875470.723    -3256789.052 3  -2537754.335 2
  24180771.602    14770965.892 2  11509841.267 1
  24654701.804     2294083.822 2   1787602.994 1
  23473334.846    -5183880.381 3  -4039381.473 1
 91  7 30  5 58  0.0010000  0  5 21 11 23 12 15
  21145600.804     1634149.125 5   1273367.449 4
  21880285.090    -3231507.317 3  -2518054.301 2
  24188796.443    14813114.628 2  11542684.421 1
  24660827.162     2326227.023 3   1812649.626 1
  23465232.055    -5226450.104 3  -4072552.653 2
 91  7 30  5 58 15.0010000  0  5 21 11 23 12 15
  21148879.935     1651392.463 5   1286803.824 4
  21885128.241    -3206056.377 3  -2498222.409 2
  24196809.600    14855287.688 2  11575546.500 1
  24666972.012     2358518.809 3   1837812.070 1
  23457144.254    -5268968.713 3  -4105683.968 1
 91  7 30  5 58 30.0010000  0  5 21 11 23 12 15
  21152176.150     1668700.233 4   1300290.406 4
  21890001.371    -3180439.701 3  -2478261.365 2
  24204844.937    14897481.864 2  11608425.094 1
  24673144.137     2390955.756 3   1863087.556 1
  23449060.650    -5311439.134 3  -4138777.759 1
 91  7 30  5 58 45.0010000  0  5 21 11 23 12 15
  21155478.971     1686067.651 4   1313823.456 4
  21894908.067    -3154662.316 3  -2458175.108 2
  24212877.577    14939692.154 2  11641316.182 1
  24679342.044     2423532.661 3   1888472.178 1
  23440987.839    -5353865.869 3  -4171837.500 1
 91  7 30  5 59  0.0010000  0  5 21 11 23 12 15
  21158798.273     1703499.744 4   1327406.908 4
  21899841.758    -3128719.200 3  -2437959.696 2
  24220923.707    14981923.965 2  11674224.036 1
  24685564.242     2456254.579 3   1913969.749 1
  23432926.127    -5396243.430 3  -4204858.921 2
 91  7 30  5 59 15.0010000  0  5 21 11 23 12 15
  21162125.069     1720996.410 4   1341040.685 3
  21904813.814    -3102610.751 3  -2417615.475 2
  24228958.145    15024176.951 2  11707148.457 1
  24691829.001     2489121.065 3   1939580.066 1
  23424866.203    -5438571.727 3  -4237841.954 1
 91  7 30  5 59 30.0010000  0  5 21 11 23 12 15
  21165469.848     1738559.308 4   1354726.060 4
  21909812.856    -3076335.548 3  -2397141.296 2
  24237000.078    15066452.771 2  11740090.633 1
  24698106.054     2522133.500 3   1965304.050 1
  23416821.870    -5480848.786 3  -4270785.085 1
 91  7 30  5 59 45.0010000  0  5 21 11 23 12 15
  21168823.030     1756192.022 4   1368465.843 4
  21914846.066    -3049890.378 3  -2376534.681 2
  24245043.808    15108754.939 2  11773053.347 1
  24704414.587     2555295.168 3   1991144.282 1
  23408789.230    -5523070.751 3  -4303685.241 1
 91  7 30  6  0  0.0010000  0  5 21 11 23 12 15
  21172192.397     1773890.641 4   1382256.977 4
  21919908.959    -3023279.449 3  -2355798.911 2
  24253103.723    15151079.417 2  11806033.445 1
  24710751.904     2588601.874 3   2017097.550 1
  23400765.585    -5565241.296 3  -4336545.365 1
 91  7 30  6  0 15.0010000  0  5 21 11 23 12 15
  21175570.453     1791650.776 4   1396096.044 4
  21925007.232    -2996507.227 3  -2334937.447 2
  24261161.248    15193422.020 2  11839027.651 1
  24717119.191     2622049.028 3   2043160.258 1
  23392748.833    -5607364.383 3  -4369368.484 1
 91  7 30  6  0 30.0010000  0  5 21 11 23 12 15
  21178961.109     1809471.257 4   1409982.136 4
  21930131.288    -2969575.135 3  -2313951.421 2
  24269221.765    15235781.513 2  11872035.011 1
  24723507.769     2655635.248 3   2069331.323 1
  23384738.380    -5649440.779 3  -4402155.216 1
 91  7 30  6  0 45.0010000  0  5 21 11 23 12 15
  21182364.652     1827362.853 4   1423923.646 3
  21935285.620    -2942472.563 3  -2292832.555 2
  24277287.082    15278168.660 2  11905063.920 1
  24729931.124     2689371.056 3   2095618.970 1
  23376743.214    -5691459.550 3  -4434897.064 1
 91  7 30  6  1  0.0010000  0  5 21 11 23 12 15
  21185781.693     1845313.734 4   1437911.356 3
  21940473.822    -2915211.690 3  -2271590.321 2
  24285352.703    15320571.586 2  11938105.138 1
  24736372.462     2723244.396 3   2122013.799 1
  23368757.645    -5733432.223 3  -4467603.018 1
 91  7 30  6  1 15.0020000  0  5 21 11 23 12 15
  21189209.512     1863324.596 4   1451945.796 4
  21945689.914    -2887791.373 3  -2250223.864 2
  24293425.212    15362992.601 2  11971160.455 1
  24742846.487     2757256.722 3   2148516.946 1
  23360774.470    -5775361.748 3  -4500275.303 2
 91  7 30  6  1 30.0020000  0  5 21 11 23 12 15
  21192650.232     1881406.507 4   1466035.591 3
  21950941.976    -2860202.005 3  -2228725.686 2
  24301509.112    15405439.398 2  12004235.854 1
  24749350.183     2791416.709 3   2175135.061 1
  23352812.285    -5817228.781 3  -4532898.913 1
 91  7 30  6  1 45.0020000  0  5 21 11 23 12 15
  21196104.145     1899550.064 4   1480173.435 3
  21956221.321    -2832452.674 3  -2207102.843 2
  24309593.921    15447904.327 2  12037325.414 1
  24755882.358     2825715.768 3   2201861.592 1
  23344853.991    -5859046.179 3  -4565483.822 1
 91  7 30  6  2  0.0020000  0  5 21 11 23 12 15
  21199569.444     1917758.000 4   1494361.442 3
  21961534.842    -2804540.983 3  -2185353.498 2
  24317673.022    15490389.982 2  12070431.127 1
  24762422.935     2860156.382 2   2228698.435 1
  23336906.193    -5900811.116 3  -4598027.911 1
 91  7 30  6  2 15.0020000  0  5 21 11 23 12 15
  21203046.138     1936031.479 4   1508600.512 3
  21966876.249    -2776465.787 3  -2163476.741 2
  24325763.222    15532897.628 2  12103553.891 1
  24769012.373     2894739.516 3   2255646.295 1
  23328967.095    -5942521.875 3  -4630529.756 1
 91  7 30  6  2 30.0020000  0  5 21 11 23 12 15
  21206539.314     1954379.788 4   1522897.895 3
  21972251.230    -2748218.233 3  -2141465.673 2
  24333858.823    15575436.559 2  12136701.085 1
  24775626.991     2929474.097 2   2282712.177 1
  23321041.476    -5984169.087 3  -4662982.084 1
 91  7 30  6  2 45.0020000  0  5 21 11 23 12 15
  21210044.191     1972800.998 4   1537252.090 3
  21977659.184    -2719800.578 3  -2119322.060 2
  24341958.909    15618004.798 2  12169871.137 1
  24782264.094     2964358.011 3   2309894.428 1
  23313129.059    -6025754.271 3  -4695386.054 1
 91  7 30  6  3  0.0020000  0  5 21 11 23 12 15
  21213560.462     1991285.323 4   1551655.468 3
  21983096.218    -2691222.794 3  -2097053.674 2
  24350061.106    15660592.586 2  12203056.433 1
  24788924.886     2999381.139 2   2337185.286 1
  23305225.925    -6067286.973 3  -4727749.164 2
 91  7 30  6  3 15.0020000  0  5 21 11 23 12 15
  21217090.815     2009832.433 5   1566107.760 3
  21988564.436    -2662485.509 3  -2074660.995 2
  24358170.493    15703199.498 2  12236256.569 1
  24795611.155     3034542.901 2   2364583.987 1
  23297332.389    -6108767.201 3  -4760071.369 1
 91  7 30  6  3 30.0020000  0  5 21 11 23 12 15
  21220630.164     2028444.817 4   1580610.918 3
  21994067.423    -2633586.432 3  -2052142.257 2
  24366277.175    15745827.944 2  12269473.530 1
  24802332.805     3069845.451 2   2392092.461 1
  23289450.850    -6150192.076 3  -4792350.451 1
 91  7 30  6  3 45.0020000  0  5 21 11 23 12 15
  21224186.301     2047124.580 5   1595166.583 3
  21999595.599    -2604523.801 3  -2029496.062 2
  24374399.457    15788480.172 2  12302708.979 1
  24809070.334     3105290.551 2   2419711.981 1
  23281580.400    -6191559.234 3  -4824584.562 1
 91  7 30  6  4  0.0020000  0  5 21 11 23 12 15
  21227754.731     2065875.259 4   1609777.497 3
  22005156.443    -2575294.312 3  -2006719.859 2
  24382521.434    15831159.688 2  12335965.751 1
  24815852.239     3140881.650 2   2447445.281 1
  23273719.540    -6232864.799 3  -4856770.669 2
 91  7 30  6  4 15.0020000  0  5 21 11 23 12 15
  21231336.353     2084687.254 4   1624436.198 3
  22010748.775    -2545907.769 3  -1983821.269 2
  24390647.608    15873856.816 2  12369236.250 1
  24822643.741     3176608.794 2   2475284.574 1
  23265865.877    -6274118.032 3  -4888915.986 2
 91  7 30  6  4 30.0020000  0  5 21 11 23 12 15
  21234927.267     2103572.613 4   1639152.060 3
  22016371.986    -2516352.461 3  -1960791.163 2
  24398778.275    15916583.575 2  12402529.804 1
  24829477.508     3212483.837 2   2503239.168 1
  23258030.799    -6315306.654 3  -4921010.990 2
 91  7 30  6  4 45.0020000  0  5 21 11 23 12 15
  21238532.273     2122519.290 4   1653915.708 3
  22022028.465    -2486640.637 3  -1937639.113 2
  24406912.546    15959327.938 2  12435837.067 1
  24836326.265     3248494.353 2   2531299.276 1
  23250203.521    -6356442.359 3  -4953064.743 2
 91  7 30  6  5  0.0020000  0  5 21 11 23 12 15
  21242152.260     2141534.243 4   1668732.555 3
  22027709.235    -2456765.715 3  -1914359.963 2
  24415046.215    16002096.908 2  12469163.502 1
  24843198.710     3284647.207 2   2559470.296 1
  23242386.731    -6397517.653 3  -4985071.411 1
 91  7 30  6  5 15.0020000  0  5 21 11 23 12 15
  21245783.947     2160615.590 4   1683601.140 3
  22033426.275    -2426729.786 3  -1890955.369 2
  24423187.081    16044888.610 2  12502507.689 1
  24850116.422     3320940.204 2   2587750.535 1
  23234579.233    -6438534.145 3  -5017032.293 1
 91  7 30  6  5 30.0020000  0  5 21 11 23 12 15
  21249427.325     2179771.004 4   1698527.438 3
  22039175.695    -2396525.437 3  -1867419.532 2
  24431332.738    16087710.554 2  12535875.380 1
  24857044.926     3357380.566 2   2616145.587 1
  23226789.430    -6479483.997 3  -5048941.210 1
 91  7 30  6  5 45.0020000  0  5 21 11 23 12 15
  21253085.092     2198996.297 4   1713508.189 3
  22044958.095    -2366157.214 3  -1843755.995 2
  24439493.394    16130558.803 2  12569263.603 1
  24864009.701     3393964.062 2   2644652.203 1
  23219006.816    -6520371.011 3  -5080801.208 1
 91  7 30  6  6  0.0020000  0  4 21 11 23 15
  21256758.755     2218291.352 4   1728543.291 4
  22050766.574    -2335625.586 3  -1819965.129 2
  24447654.642    16173433.020 2  12602672.068 1
  23211237.691    -6561195.095 3  -5112612.101 1
 91  7 30  6  6 15.0020000  0  4 21 11 23 15
  21260443.805     2237656.357 4   1743632.898 3
  22056603.533    -2304930.587 3  -1796046.955 2
  24455816.188    16216333.344 2  12636100.860 1
  23203480.869    -6601955.508 3  -5144373.418 1
 91  7 30  6  6 30.0020000  0  4 21 11 23 15
  21264140.546     2257086.718 4   1758773.443 3
  22062480.661    -2274077.076 3  -1772005.269 2
  24463988.229    16259255.286 2  12669546.527 1
  23195739.324    -6642656.688 3  -5176088.611 1
 91  7 30  6  6 45.0020000  0  4 21 11 23 15
  21267853.769     2276596.394 5   1773975.790 3
  22068381.478    -2243051.312 3  -1747829.377 2
  24472161.475    16302212.728 2  12703019.812 1
  23188005.876    -6683284.351 3  -5207746.502 2
 91  7 30  6  7  0.0020000  0  4 21 11 23 15
  21271577.794     2296174.222 4   1789231.247 3
  22074316.167    -2211864.852 3  -1723528.235 2
  24480340.715    16345194.520 2  12736512.152 1
  23180286.223    -6723849.382 3  -5239355.560 2
 91  7 30  6  7 15.0020000  0  4 21 11 23 15
  21275319.505     2315826.020 4   1804544.331 3
  22080282.038    -2180512.238 3  -1699097.647 2
  24488522.346    16388206.225 2  12770027.740 1
  23172580.957    -6764345.616 3  -5270911.035 1
 91  7 30  6  7 30.0020000  0  4 21 11 23 15
  21279071.703     2335549.197 4   1819913.043 3
  22086279.687    -2148996.232 3  -1674539.727 2
  24496718.373    16431245.493 2  12803564.784 1
  23164886.484    -6804775.481 3  -5302414.778 2
 91  7 30  6  7 45.0020000  0  4 21 11 23 15
  21282838.001     2355340.132 4   1835334.556 3
  22092310.308    -2117320.759 3  -1649857.566 2
  24504901.513    16474308.760 2  12837120.536 1
  23157204.898    -6845142.169 3  -5333869.340 1
 91  7 30  6  8  0.0020000  0  4 21 11 23 15
  21286615.685     2375199.223 4   1850809.180 3
  22098366.720    -2085485.683 3  -1625051.015 2
  24513106.527    16517396.373 2  12870695.279 1
  23149537.412    -6885444.799 3  -5365273.942 2
 91  7 30  6  8 15.0020000  0  4 21 11 23 15
  21290408.359     2395125.455 5   1866336.110 3
  22104451.305    -2053492.465 3  -1600121.254 2
  24521307.352    16560507.283 2  12904288.186 1
  23141878.311    -6925684.354 3  -5396629.408 1
 91  7 30  6  8 30.0020000  0  4 21 11 23 15
  21294213.021     2415120.660 5   1881916.791 3
  22110570.669    -2021339.297 3  -1575066.840 2
  24529513.867    16603643.141 2  12937900.508 1
  23134234.199    -6965858.428 3  -5427933.855 1
 91  7 30  6  8 45.0020000  0  4 21 11 23 15
  21298030.579     2435186.650 5   1897552.633 3
  22116720.615    -1989024.809 3  -1549886.756 1
  24537732.684    16646805.681 2  12971533.638 1
  23126603.289    -7005965.030 3  -5459185.721 2
 91  7 30  6  9  0.0020000  0  4 21 11 23 15
  21301865.823     2455325.945 5   1913245.584 3
  22122900.531    -1956546.918 3  -1524579.327 2
  24545950.593    16689997.408 2  13005189.520 1
  23118984.663    -7046001.337 3  -5490382.808 1
 91  7 30  6  9 15.0020000  0  4 21 11 23 15
  21305711.266     2475539.939 5   1928996.746 3
  22129112.538    -1923904.395 3  -1499143.598 2
  24554177.795    16733219.944 2  13038869.388 1
  23111378.925    -7085965.603 3  -5521523.735 2
 91  7 30  6  9 30.0020000  0  4 21 11 23 15
  21309569.588     2495820.023 4   1944799.406 3
  22135356.610    -1891106.117 3  -1473586.512 2
  24562404.700    16776464.697 2  13072566.575 1
  23103787.278    -7125866.019 3  -5552614.936 2
 91  7 30  6  9 45.0020000  0  4 21 11 23 15
  21313442.009     2516166.982 4   1960654.179 3
  22141626.167    -1858151.732 3  -1447907.780 2
  24570633.106    16819732.515 2  13106281.761 1
  23096202.235    -7165701.616 3  -5583655.639 1
 91  7 30  6 10  0.0020000  0  4 21 11 23 15
  21317325.826     2536578.037 4   1976558.903 3
  22147927.807    -1825044.331 3  -1422109.816 2
  24578874.399    16863020.469 2  13140012.606 1
  23088638.168    -7205474.803 3  -5614647.684 1
 91  7 30  6 10 15.0020000  0  4 21 11 23 15
  21321222.826     2557059.330 4   1992518.351 3
  22154256.426    -1791778.141 3  -1396188.136 2
  24587118.388    16906334.433 2  13173763.759 1
  23081079.798    -7245179.039 3  -5645586.037 2
 91  7 30  6 10 30.0020000  0  4 21 11 23 15
  21325133.917     2577615.340 4   2008536.033 3
  22160618.627    -1758348.914 3  -1370139.393 2
  24595369.279    16949679.097 2  13207538.769 1
  23073539.122    -7284809.485 3  -5676466.874 2
 91  7 30  6 10 45.0020000  0  4 21 11 23 15
  21329060.295     2598249.691 4   2024614.745 3
  22167010.798    -1724753.437 3  -1343961.118 2
  24603623.764    16993058.157 2  13241340.619 1
  23066012.233    -7324362.243 3  -5707287.174 2
 91  7 30  6 11  0.0020000  0  4 21 11 23 15
  21333001.671     2618955.798 4   2040749.378 3
  22173432.356    -1690998.470 3  -1317658.553 2
  24611882.446    17036465.091 2  13275164.210 1
  23058498.230    -7363843.538 3  -5738051.797 2
 91  7 30  6 11 15.0020000  0  4 21 11 23 15
  21336955.637     2639730.669 4   2056937.592 3
  22179888.379    -1657087.308 3  -1291234.284 2
  24620149.225    17079896.682 2  13309006.978 1
  23050997.123    -7403256.074 3  -5768762.825 1
 91  7 30  6 11 30.0020000  0  4 21 11 23 15
  21340922.787     2660578.623 4   2073182.756 3
  22186369.895    -1623016.071 3  -1264685.274 2
  24628413.901    17123357.183 2  13342872.295 1
  23043513.109    -7442595.195 3  -5799416.654 2
 91  7 30  6 11 45.0020000  0  4 21 11 23 15
  21344904.333     2681495.161 4   2089481.354 3
  22192882.587    -1588789.575 3  -1238015.293 2
  24636692.973    17166842.090 2  13376756.597 1
  23036041.082    -7481865.247 3  -5830016.674 1
 91  7 30  6 12  0.0020000  0  4 21 11 23 15
  21348894.570     2702479.478 4   2105832.768 3
  22199425.860    -1554409.048 3  -1211225.289 2
  24644974.140    17210350.493 2  13410659.222 1
  23028581.045    -7521066.665 3  -5860563.212 2
 91  7 30  6 12 15.0020000  0  4 21 11 23 15
  21352902.789     2723534.317 4   2122239.133 3
  22205998.206    -1519871.942 3  -1184313.274 2
  24653258.003    17253885.367 2  13444582.461 1
  23021134.504    -7560196.491 3  -5891053.945 1
 91  7 30  6 12 30.0020000  0  4 21 11 23 15
  21356921.810     2744656.438 4   2138697.934 3
  22212596.639    -1485181.792 3  -1157282.005 2
  24661543.366    17297443.452 2  13478523.819 1
  23013701.445    -7599257.425 3  -5921490.992 2
 91  7 30  6 12 45.0020000  0  4 21 11 23 15
  21360954.023     2765846.876 4   2155209.964 3
  22219228.045    -1450337.944 3  -1130130.978 2
  24669839.226    17341025.729 2  13512484.044 1
  23006283.985    -7638248.203 3  -5951873.395 2
 91  7 30  6 13  0.0020000  0  4 21 11 23 15
  21365000.920     2787113.201 5   2171781.132 3
  22225891.838    -1415333.130 3  -1102854.528 2
  24678137.781    17384639.768 2  13546468.948 1
  22998877.005    -7677160.871 3  -5982194.946 2
 91  7 30  6 13 15.0020000  0  4 21 11 23 15
  21369060.704     2808448.845 5   2188406.313 3
  22232580.506    -1380174.273 3  -1075458.021 2
  24686436.032    17428278.872 2  13580473.435 1
  22991485.023    -7716001.508 3  -6012460.327 2
 91  7 30  6 13 30.0020000  0  4 21 11 23 15
  21373137.285     2829861.438 4   2205091.452 3
  22239300.350    -1344854.059 3  -1047935.779 2
  24694751.680    17471950.765 2  13614503.485 1
  22984109.234    -7754762.183 3  -6042663.425 2
 91  7 30  6 13 45.0020000  0  4 21 11 23 15
  21377224.955     2851345.813 4   2221832.524 3
  22246053.174    -1309378.187 3  -1020292.258 2
  24703072.720    17515650.018 2  13648554.823 1
  22976747.529    -7793447.838 3  -6072808.053 2
 91  7 30  6 14  0.0020000  0  4 21 11 23 15
  21381324.316     2872891.732 4   2238621.555 3
  22252832.383    -1273757.072 3   -992535.572 2
  24711390.157    17559366.612 2  13682619.669 1
  22969399.914    -7832068.442 3  -6102901.999 2
 91  7 30  6 14 15.0020000  0  4 21 11 23 15
  21385438.667     2894506.950 4   2255464.587 3
  22259639.172    -1237983.243 3   -964659.886 2
  24719709.697    17603108.369 2  13716704.127 1
  22962063.397    -7870615.839 3  -6132938.913 2
 91  7 30  6 14 30.0020000  0  4 21 11 23 15
  21389563.812     2916188.043 4   2272358.942 3
  22266478.340    -1202060.651 3   -936668.271 2
  24728038.834    17646871.740 2  13750805.454 1
  22954743.659    -7909093.308 3  -6162921.324 2
 91  7 30  6 14 45.0020000  0  4 21 11 23 15
  21393702.750     2937936.314 4   2289305.644 3
  22273337.889    -1165988.159 3   -908559.855 2
  24736369.463    17690658.017 2  13784924.609 1
  22947433.222    -7947498.979 3  -6192847.788 2
 91  7 30  6 15  0.0020000  0  4 21 11 23 15
  21397854.270     2959758.757 4   2306310.154 3
  22280236.414    -1129759.034 3   -880329.395 2
  24744708.495    17734474.255 2  13819067.084 1
  22940137.774    -7985825.583 3  -6222712.658 2
 91  7 30  6 15 15.0020000  0  4 21 11 23 15
  21402018.992     2981653.144 4   2323370.714 3
  22287160.722    -1093375.839 3   -851978.873 2
  24753055.013    17778318.183 2  13853231.169 1
  22932860.013    -8024075.193 3  -6252517.516 2
 91  7 30  6 15 30.0020000  0  4 21 11 23 15
  21406198.101     3003611.719 4   2340481.292 3
  22294108.107    -1056846.777 3   -823514.676 2
  24761400.640    17822182.056 2  13887410.801 1
  22925597.843    -8062255.140 3  -6282268.087 2
 91  7 30  6 15 45.0020000  0  3 21 11 15
  21410391.292     3025646.126 4   2357650.968 3
  22301090.873    -1020160.701 3   -794928.150 2
  22918347.356    -8100353.516 3  -6311955.119 2
 91  7 30  6 16  0.0020000  0  3 21 11 15
  21414597.685     3047751.191 4   2374875.695 3
  22308098.226     -983323.049 3   -766223.500 2
  22911111.867    -8138375.225 3  -6341582.396 1
 91  7 30  6 16 15.0020000  0  3 21 11 15
  21418819.660     3069928.691 4   2392156.865 3
  22315140.348     -946332.397 3   -737399.631 2
  22903888.664    -8176318.169 3  -6371148.318 2
 91  7 30  6 16 30.0020000  0  3 21 11 15
  21423052.429     3092181.666 4   2409496.840 3
  22322210.356     -909186.081 3   -708454.473 2
  22896688.852    -8214178.674 3  -6400649.970 2
 91  7 30  6 16 45.0020000  0  3 21 11 15
  21427302.586     3114507.280 4   2426893.419 3
  22329307.945     -871887.295 3   -679390.520 2
  22889495.934    -8251959.391 3  -6430089.455 2
 91  7 30  6 17  0.0020000  0  3 21 11 15
  21431562.935     3136900.382 4   2444342.595 3
  22336429.815     -834441.497 3   -650211.971 2
  22882322.202    -8289665.138 3  -6459470.556 2
 91  7 30  6 17 15.0020000  0  3 21 11 15
  21435837.680     3159366.094 4   2461848.347 3
  22343584.657     -796843.838 3   -620915.104 2
  22875161.060    -8327290.311 3  -6488788.843 2
 91  7 30  6 17 30.0020000  0  3 21 11 15
  21440126.210     3181905.218 4   2479411.289 3
  22350770.081     -759094.168 3   -591499.799 1
  22868014.000    -8364834.018 3  -6518043.656 2
 91  7 30  6 17 45.0020000  0  3 21 11 15
  21444430.027     3204513.992 4   2497028.519 3
  22357983.687     -721196.418 3   -561969.092 1
  22860889.434    -8402299.785 3  -6547237.717 2
 91  7 30  6 18  0.0020000  0  3 21 11 15
  21448746.443     3227193.440 4   2514700.820 3
  22365224.279     -683149.900 3   -532322.469 2
  22853772.659    -8439686.132 3  -6576369.917 2
 91  7 30  6 18 15.0020000  0  3 21 11 15
  21453073.050     3249937.589 4   2532423.530 3
  22372489.145     -644961.034 3   -502564.941 2
  22846671.782    -8476998.646 3  -6605444.591 1
 91  7 30  6 18 30.0020000  0  3 21 11 15
  21457415.537     3272749.407 4   2550198.968 3
  22379785.195     -606627.160 3   -472694.422 2
  22839587.081    -8514234.207 3  -6634459.282 2
 91  7 30  6 18 45.0020000  0  3 21 11 15
  21461767.630     3295630.042 4   2568028.035 3
  22387104.331     -568147.419 3   -442710.214 2
  22832517.980    -8551391.155 3  -6663412.717 1
 91  7 30  6 19  0.0020000  0  3 21 11 15
  21466135.603     3318582.460 4   2585913.040 3
  22394455.837     -529519.307 3   -412610.388 2
  22825465.361    -8588466.224 3  -6692302.368 2
 91  7 30  6 19 15.0020000  0  3 21 11 15
  21470518.268     3341601.930 4   2603850.290 3
  22401834.932     -490748.010 3   -382399.016 2
  22818420.839    -8625463.940 3  -6721131.717 2
 91  7 30  6 19 30.0020000  0  3 21 11 15
  21474907.827     3364686.902 4   2621838.571 3
  22409241.302     -451835.590 3   -352077.667 2
  22811395.504    -8662385.697 3  -6749901.887 1
 91  7 30  6 19 45.0020000  0  3 21 11 15
  21479315.080     3387835.312 4   2639876.305 3
  22416671.064     -412784.242 3   -321648.078 2
  22804383.657    -8699232.983 3  -6778614.025 2
 91  7 30  6 20  0.0020000  0  3 21 11 15
  21483733.118     3411043.012 4   2657960.234 3
  22424128.397     -373598.543 3   -291113.788 2
  22797382.298    -8736009.585 3  -6807271.100 2
 91  7 30  6 20 15.0020000  0  3 21 11 15
  21488160.753     3434326.303 4   2676103.051 3
  22431615.413     -334262.504 3   -260462.341 2
  22790401.932    -8772698.732 3  -6835860.021 2
 91  7 30  6 20 30.0020000  0  3 21 11 15
  21492605.175     3457674.512 4   2694296.454 3
  22439127.016     -294787.108 3   -229702.310 1
  22783435.055    -8809310.877 3  -6864388.917 2
 91  7 30  6 20 45.0020000  0  3 21 11 15
  21497060.992     3481089.649 4   2712542.009 3
  22446666.199     -255170.893 3   -198832.560 1
  22776482.870    -8845843.847 3  -6892856.144 2
 91  7 30  6 21  0.0020000  0  3 21 11 15
  21501527.000     3504565.352 4   2730834.764 3
  22454229.961     -215420.607 3   -167858.344 1
  22769546.269    -8882303.470 3  -6921266.220 2
 91  7 30  6 21 15.0020000  0  3 21 11 15
  21506007.998     3528103.965 4   2749176.534 3
  22461817.709     -175534.220 3   -136778.060 2
  22762619.562    -8918687.063 3  -6949617.043 2
 91  7 30  6 21 30.0020000  0  3 21 11 15
  21510499.492     3551709.804 4   2767570.695 3
  22469435.732     -135507.719 3   -105588.603 2
  22755711.745    -8954989.944 3  -6977904.964 2
 91  7 30  6 21 45.0020000  0  3 21 11 15
  21515004.170     3575377.535 4   2786013.080 3
  22477077.444      -95346.920 3    -74294.494 2
  22748816.519    -8991217.434 3  -7006134.143 2
 91  7 30  6 22  0.0020000  0  3 21 11 15
  21519520.844     3599112.530 4   2804507.874 3
  22484745.532      -55046.700 3    -42891.750 1
  22741942.581    -9027363.650 3  -7034299.999 2
 91  7 30  6 22 15.0020000  0  3 21 11 15
  21524047.108     3622913.275 4   2823053.909 3
  22492440.310      -14609.002 3    -11381.876 2
  22735080.632    -9063429.779 3  -7062403.459 2
 91  7 30  6 22 30.0020000  0  3 21 11 15
  21528588.972     3646771.150 4   2841644.468 3
  22500161.761       25957.052 3     20228.004 2
  22728227.975    -9099424.345 3  -7090451.141 1
 91  7 30  6 22 45.0020000  0  3 21 11 15
  21533138.916     3670679.747 4   2860274.545 3
  22507906.002       66644.599 3     51932.586 2
  22721393.004    -9135353.184 3  -7118447.607 2
 91  7 30  6 23  0.0020000  0  3 21 11 15
  21537698.466     3694652.163 4   2878954.348 3
  22515670.328      107466.345 3     83741.730 1
  22714570.632    -9171202.816 3  -7146382.354 2
 91  7 30  6 23 15.0020000  0  3 21 11 15
  21542273.895     3718689.444 4   2897684.688 3
  22523466.431      148423.031 3    115656.004 1
  22707763.843    -9206972.253 3  -7174254.611 2
 91  7 30  6 23 30.0020000  0  3 21 11 15
  21546860.118     3742787.384 4   2916462.308 3
  22531286.214      189509.863 3    147671.698 1
  22700969.348    -9242665.225 3  -7202067.292 2
 91  7 30  6 23 45.0020000  0  3 21 11 15
  21551456.837     3766949.198 4   2935289.700 3
  22539129.389      230729.831 3    179791.147 2
  22694192.242    -9278278.165 3  -7229817.604 2
 91  7 30  6 24  0.0020000  0  3 21 11 15
  21556066.443     3791169.044 4   2954162.303 3
  22546996.244      272076.763 3    212009.499 2
  22687432.219    -9313816.410 3  -7257509.712 2
 91  7 30  6 24 15.0020000  0  3 21 11 15
  21560687.444     3815445.304 4   2973078.864 3
  22554884.981      313548.525 3    244325.146 2
  22680682.388    -9349281.202 3  -7285144.595 2
 91  7 30  6 24 30.0020000  0  3 21 11 15
  21565316.541     3839770.994 4   2992033.950 3
  22562803.096      355137.854 3    276732.391 1
  22673944.859    -9384679.250 3  -7312727.444 2
 91  7 30  6 24 45.0020000  0  3 21 11 15
  21569954.931     3864154.942 4   3011034.430 3
  22570738.905      396853.111 3    309237.772 2
  22667221.107    -9420001.372 3  -7340251.146 2
 91  7 30  6 25  0.0020000  0  3 21 11 15
  21574606.514     3888601.604 4   3030083.771 3
  22578703.787      438698.315 3    341844.425 2
  22660518.347    -9455242.857 3  -7367712.024 2
